Wetterdaten: Mittwoch, 03.01.2018
Datum Zeit Temp. Aussen Temp. o. S. +5cm Feuchte Auss BlattFeu 1 Luftdruck Regen Sonnenschein Regendauer Solar Windben Empfang
03.01.2018 00:00 7,6 C 7,2 C 6,1 C 97 % 15 lf 999,6 hPa 0,0 l/m 0 min 2 min 0 W/m 22,5 km/h (4 Bft) 91,49 %
03.01.2018 00:02 7,7 C 7,2 C 6,1 C 97 % 15 lf 999,5 hPa 0,0 l/m 0 min 2 min 0 W/m 24,8 km/h (4 Bft) 89,47 %
03.01.2018 00:04 7,7 C 7,2 C 6,1 C 97 % 15 lf 999,5 hPa 0,2 l/m 0 min 2 min 0 W/m 24,8 km/h (4 Bft) 89,36 %
03.01.2018 00:08 7,7 C 7,2 C 6,1 C 97 % 15 lf 999,4 hPa 0,0 l/m 0 min 4 min 0 W/m 24,8 km/h (4 Bft) 93,88 %
03.01.2018 00:10 7,7 C 7,2 C 6,1 C 97 % 15 lf 999,4 hPa 0,0 l/m 0 min 2 min 0 W/m 36,0 km/h (5 Bft) 95,74 %
03.01.2018 00:12 7,7 C 7,2 C 6,1 C 97 % 15 lf 999,3 hPa 0,0 l/m 0 min 2 min 0 W/m 22,5 km/h (4 Bft) 93,62 %
03.01.2018 00:14 7,7 C 7,2 C 6,1 C 97 % 15 lf 999,3 hPa 0,0 l/m 0 min 2 min 0 W/m 38,3 km/h (5 Bft) 97,87 %
03.01.2018 00:16 7,7 C 7,2 C 6,1 C 97 % 15 lf 999,2 hPa 0,0 l/m 0 min 2 min 0 W/m 29,3 km/h (5 Bft) 97,87 %
03.01.2018 00:18 7,8 C 7,2 C 6,1 C 97 % 15 lf 999,2 hPa 0,2 l/m 0 min 2 min 0 W/m 24,8 km/h (4 Bft) 95,74 %
03.01.2018 00:20 7,8 C 7,2 C 6,1 C 97 % 15 lf 999,0 hPa 0,0 l/m 0 min 2 min 0 W/m 27,0 km/h (4 Bft) 97,87 %
03.01.2018 00:22 7,8 C 7,2 C 6,1 C 97 % 15 lf 999,0 hPa 0,0 l/m 0 min 2 min 0 W/m 36,0 km/h (5 Bft) 95,74 %
03.01.2018 00:24 7,8 C 7,2 C 6,1 C 97 % 15 lf 998,9 hPa 0,0 l/m 0 min 2 min 0 W/m 38,3 km/h (5 Bft) 97,83 %
03.01.2018 00:26 7,8 C 7,2 C 6,1 C 97 % 15 lf 998,5 hPa 0,0 l/m 0 min 2 min 0 W/m 45,1 km/h (6 Bft) 97,87 %
03.01.2018 00:28 7,9 C 7,2 C 6,1 C 97 % 15 lf 998,4 hPa 0,0 l/m 0 min 2 min 0 W/m 38,3 km/h (5 Bft) 95,74 %
03.01.2018 00:30 7,9 C 7,2 C 6,1 C 97 % 15 lf 998,4 hPa 0,0 l/m 0 min 2 min 0 W/m 29,3 km/h (5 Bft) 100,00 %
03.01.2018 00:32 7,9 C 7,2 C 6,1 C 97 % 15 lf 998,4 hPa 0,0 l/m 0 min 2 min 0 W/m 20,3 km/h (4 Bft) 95,74 %
03.01.2018 00:34 7,9 C 7,2 C 6,1 C 97 % 15 lf 998,2 hPa 0,0 l/m 0 min 2 min 0 W/m 33,8 km/h (5 Bft) 100,00 %
03.01.2018 00:36 7,9 C 7,2 C 6,1 C 97 % 15 lf 998,1 hPa 0,0 l/m 0 min 2 min 0 W/m 24,8 km/h (4 Bft) 97,83 %
03.01.2018 00:38 7,9 C 7,2 C 6,1 C 97 % 15 lf 998,1 hPa 0,0 l/m 0 min 2 min 0 W/m 20,3 km/h (4 Bft) 97,87 %
03.01.2018 00:40 7,9 C 7,2 C 6,1 C 97 % 15 lf 998,2 hPa 0,0 l/m 0 min 2 min 0 W/m 27,0 km/h (4 Bft) 97,87 %
03.01.2018 00:42 7,9 C 7,2 C 6,1 C 97 % 15 lf 998,1 hPa 0,0 l/m 0 min 2 min 0 W/m 22,5 km/h (4 Bft) 97,87 %
03.01.2018 00:44 8,0 C 7,2 C 6,1 C 97 % 15 lf 998,0 hPa 0,0 l/m 0 min 2 min 0 W/m 24,8 km/h (4 Bft) 100,00 %
03.01.2018 00:46 8,0 C 7,2 C 6,7 C 97 % 15 lf 998,0 hPa 0,0 l/m 0 min 2 min 0 W/m 29,3 km/h (5 Bft) 100,00 %
03.01.2018 00:48 8,0 C 7,2 C 6,7 C 97 % 15 lf 998,0 hPa 0,0 l/m 0 min 2 min 0 W/m 31,5 km/h (5 Bft) 97,87 %
03.01.2018 00:50 8,1 C 7,2 C 6,7 C 97 % 15 lf 997,7 hPa 0,2 l/m 0 min 2 min 0 W/m 24,8 km/h (4 Bft) 100,00 %
03.01.2018 00:52 8,1 C 7,8 C 6,7 C 97 % 15 lf 997,8 hPa 0,0 l/m 0 min 2 min 0 W/m 29,3 km/h (5 Bft) 100,00 %
03.01.2018 00:54 8,1 C 7,8 C 6,7 C 97 % 15 lf 997,6 hPa 0,0 l/m 0 min 2 min 0 W/m 29,3 km/h (5 Bft) 100,00 %
03.01.2018 00:56 8,1 C 7,8 C 6,7 C 97 % 15 lf 997,5 hPa 0,0 l/m 0 min 2 min 0 W/m 38,3 km/h (5 Bft) 97,87 %
03.01.2018 00:58 8,1 C 7,8 C 6,7 C 97 % 15 lf 997,4 hPa 0,0 l/m 0 min 2 min 0 W/m 22,5 km/h (4 Bft) 100,00 %
03.01.2018 01:00 8,1 C 7,8 C 6,7 C 97 % 15 lf 997,2 hPa 0,0 l/m 0 min 2 min 0 W/m 20,3 km/h (4 Bft) 97,87 %
03.01.2018 01:02 8,1 C 7,8 C 6,7 C 97 % 15 lf 997,2 hPa 0,0 l/m 0 min 2 min 0 W/m 24,8 km/h (4 Bft) 100,00 %
03.01.2018 01:04 8,2 C 7,8 C 6,7 C 97 % 15 lf 997,1 hPa 0,0 l/m 0 min 2 min 0 W/m 22,5 km/h (4 Bft) 97,87 %
03.01.2018 01:06 8,2 C 7,8 C 6,7 C 97 % 15 lf 997,1 hPa 0,0 l/m 0 min 0 min 0 W/m 22,5 km/h (4 Bft) 100,00 %
03.01.2018 01:08 8,2 C 7,8 C 6,7 C 97 % 15 lf 997,1 hPa 0,0 l/m 0 min 2 min 0 W/m 22,5 km/h (4 Bft) 100,00 %
03.01.2018 01:10 8,2 C 7,8 C 6,7 C 97 % 15 lf 997,0 hPa 0,0 l/m 0 min 2 min 0 W/m 24,8 km/h (4 Bft) 100,00 %
03.01.2018 01:12 8,2 C 7,8 C 6,7 C 97 % 15 lf 996,8 hPa 0,0 l/m 0 min 2 min 0 W/m 22,5 km/h (4 Bft) 95,74 %
03.01.2018 01:14 8,2 C 7,8 C 6,7 C 97 % 15 lf 996,8 hPa 0,0 l/m 0 min 0 min 0 W/m 20,3 km/h (4 Bft) 95,74 %
03.01.2018 01:16 8,2 C 7,8 C 6,7 C 97 % 15 lf 996,7 hPa 0,0 l/m 0 min 0 min 0 W/m 15,8 km/h (3 Bft) 97,87 %
03.01.2018 01:18 8,2 C 7,8 C 6,7 C 97 % 15 lf 996,6 hPa 0,0 l/m 0 min 2 min 0 W/m 22,5 km/h (4 Bft) 97,87 %
03.01.2018 01:20 8,2 C 7,8 C 6,7 C 97 % 15 lf 996,4 hPa 0,0 l/m 0 min 2 min 0 W/m 24,8 km/h (4 Bft) 97,87 %
03.01.2018 01:22 8,2 C 7,8 C 6,7 C 97 % 15 lf 996,3 hPa 0,0 l/m 0 min 2 min 0 W/m 24,8 km/h (4 Bft) 97,83 %
03.01.2018 01:24 8,2 C 7,8 C 6,7 C 97 % 15 lf 996,2 hPa 0,0 l/m 0 min 2 min 0 W/m 31,5 km/h (5 Bft) 97,87 %
03.01.2018 01:26 8,2 C 7,8 C 6,7 C 97 % 15 lf 996,1 hPa 0,0 l/m 0 min 0 min 0 W/m 33,8 km/h (5 Bft) 97,87 %
03.01.2018 01:28 8,2 C 7,8 C 6,7 C 97 % 15 lf 996,2 hPa 0,0 l/m 0 min 2 min 0 W/m 27,0 km/h (4 Bft) 97,87 %
03.01.2018 01:30 8,2 C 7,8 C 6,7 C 97 % 15 lf 996,1 hPa 0,0 l/m 0 min 2 min 0 W/m 29,3 km/h (5 Bft) 93,62 %
03.01.2018 01:32 8,2 C 7,8 C 6,7 C 97 % 15 lf 996,0 hPa 0,0 l/m 0 min 2 min 0 W/m 40,6 km/h (6 Bft) 97,87 %
03.01.2018 01:34 8,2 C 7,8 C 6,7 C 97 % 15 lf 995,9 hPa 0,0 l/m 0 min 2 min 0 W/m 29,3 km/h (5 Bft) 97,83 %
03.01.2018 01:36 8,2 C 7,8 C 6,7 C 97 % 15 lf 995,9 hPa 0,0 l/m 0 min 2 min 0 W/m 27,0 km/h (4 Bft) 95,74 %
03.01.2018 01:38 8,2 C 7,8 C 6,7 C 97 % 15 lf 995,7 hPa 0,0 l/m 0 min 2 min 0 W/m 24,8 km/h (4 Bft) 97,87 %
03.01.2018 01:40 8,2 C 7,8 C 6,7 C 97 % 15 lf 995,6 hPa 0,0 l/m 0 min 2 min 0 W/m 29,3 km/h (5 Bft) 97,87 %
03.01.2018 01:42 8,3 C 7,8 C 6,7 C 97 % 15 lf 995,7 hPa 0,0 l/m 0 min 2 min 0 W/m 29,3 km/h (5 Bft) 95,74 %
03.01.2018 01:44 8,3 C 7,8 C 6,7 C 97 % 15 lf 995,4 hPa 0,0 l/m 0 min 2 min 0 W/m 24,8 km/h (4 Bft) 95,74 %
03.01.2018 01:46 8,3 C 7,8 C 6,7 C 97 % 15 lf 995,3 hPa 0,0 l/m 0 min 2 min 0 W/m 22,5 km/h (4 Bft) 95,65 %
03.01.2018 01:48 8,3 C 7,8 C 6,7 C 97 % 15 lf 995,2 hPa 0,0 l/m 0 min 2 min 0 W/m 20,3 km/h (4 Bft) 93,62 %
03.01.2018 01:50 8,3 C 7,8 C 6,7 C 97 % 15 lf 995,1 hPa 0,0 l/m 0 min 2 min 0 W/m 31,5 km/h (5 Bft) 95,74 %
03.01.2018 01:52 8,3 C 7,8 C 6,7 C 97 % 15 lf 994,9 hPa 0,0 l/m 0 min 2 min 0 W/m 47,3 km/h (6 Bft) 93,62 %
03.01.2018 01:54 8,4 C 7,8 C 6,7 C 97 % 15 lf 994,9 hPa 0,0 l/m 0 min 2 min 0 W/m 27,0 km/h (4 Bft) 91,49 %
03.01.2018 01:56 8,4 C 7,8 C 6,7 C 97 % 15 lf 994,7 hPa 0,0 l/m 0 min 2 min 0 W/m 27,0 km/h (4 Bft) 95,65 %
03.01.2018 01:58 8,4 C 7,8 C 6,7 C 97 % 15 lf 994,7 hPa 0,0 l/m 0 min 2 min 0 W/m 36,0 km/h (5 Bft) 93,62 %
03.01.2018 02:00 8,4 C 7,8 C 6,7 C 97 % 15 lf 994,6 hPa 0,0 l/m 0 min 2 min 0 W/m 36,0 km/h (5 Bft) 89,36 %
03.01.2018 02:02 8,4 C 7,8 C 6,7 C 97 % 15 lf 994,3 hPa 0,0 l/m 0 min 2 min 0 W/m 31,5 km/h (5 Bft) 93,62 %
03.01.2018 02:04 8,5 C 7,8 C 6,7 C 97 % 15 lf 994,3 hPa 0,0 l/m 0 min 2 min 0 W/m 29,3 km/h (5 Bft) 93,62 %
03.01.2018 02:06 8,6 C 7,8 C 6,7 C 97 % 15 lf 994,1 hPa 0,0 l/m 0 min 2 min 0 W/m 22,5 km/h (4 Bft) 91,49 %
03.01.2018 02:08 8,6 C 7,8 C 6,7 C 97 % 15 lf 994,0 hPa 0,0 l/m 0 min 2 min 0 W/m 36,0 km/h (5 Bft) 95,65 %
03.01.2018 02:10 8,6 C 7,8 C 6,7 C 97 % 15 lf 993,6 hPa 0,0 l/m 0 min 2 min 0 W/m 33,8 km/h (5 Bft) 95,74 %
03.01.2018 02:12 8,6 C 7,8 C 7,2 C 97 % 15 lf 993,4 hPa 0,0 l/m 0 min 2 min 0 W/m 36,0 km/h (5 Bft) 95,74 %
03.01.2018 02:14 8,7 C 7,8 C 6,7 C 97 % 15 lf 993,3 hPa 0,0 l/m 0 min 0 min 0 W/m 24,8 km/h (4 Bft) 93,62 %
03.01.2018 02:16 8,7 C 7,8 C 6,7 C 97 % 15 lf 993,1 hPa 0,0 l/m 0 min 2 min 0 W/m 22,5 km/h (4 Bft) 95,74 %
03.01.2018 02:18 8,7 C 7,8 C 6,7 C 97 % 15 lf 992,9 hPa 0,0 l/m 0 min 2 min 0 W/m 27,0 km/h (4 Bft) 91,49 %
03.01.2018 02:20 8,7 C 7,8 C 6,7 C 97 % 15 lf 993,0 hPa 0,0 l/m 0 min 2 min 0 W/m 18,0 km/h (3 Bft) 95,65 %
03.01.2018 02:22 8,7 C 7,8 C 6,7 C 97 % 15 lf 993,0 hPa 0,0 l/m 0 min 0 min 0 W/m 29,3 km/h (5 Bft) 93,62 %
03.01.2018 02:24 8,7 C 7,8 C 7,2 C 97 % 15 lf 993,0 hPa 0,0 l/m 0 min 2 min 0 W/m 22,5 km/h (4 Bft) 95,74 %
03.01.2018 02:26 8,7 C 7,8 C 7,2 C 97 % 15 lf 992,9 hPa 0,0 l/m 0 min 0 min 0 W/m 22,5 km/h (4 Bft) 97,87 %
03.01.2018 02:28 8,7 C 7,8 C 7,2 C 97 % 15 lf 992,8 hPa 0,0 l/m 0 min 2 min 0 W/m 22,5 km/h (4 Bft) 95,74 %
03.01.2018 02:30 8,7 C 8,3 C 7,2 C 97 % 15 lf 992,8 hPa 0,0 l/m 0 min 2 min 0 W/m 29,3 km/h (5 Bft) 95,74 %
03.01.2018 02:32 8,7 C 8,3 C 7,2 C 97 % 15 lf 992,8 hPa 0,0 l/m 0 min 2 min 0 W/m 27,0 km/h (4 Bft) 95,65 %
03.01.2018 02:34 8,8 C 8,3 C 7,2 C 97 % 15 lf 992,7 hPa 0,2 l/m 0 min 2 min 0 W/m 33,8 km/h (5 Bft) 95,74 %
03.01.2018 02:36 8,8 C 8,3 C 7,2 C 97 % 15 lf 992,6 hPa 0,0 l/m 0 min 2 min 0 W/m 29,3 km/h (5 Bft) 95,74 %
03.01.2018 02:38 8,8 C 8,3 C 7,2 C 97 % 15 lf 992,4 hPa 0,0 l/m 0 min 2 min 0 W/m 33,8 km/h (5 Bft) 95,74 %
03.01.2018 02:40 8,8 C 8,3 C 7,2 C 97 % 15 lf 992,1 hPa 0,0 l/m 0 min 2 min 0 W/m 33,8 km/h (5 Bft) 97,87 %
03.01.2018 02:42 8,8 C 8,3 C 7,2 C 97 % 15 lf 991,9 hPa 0,2 l/m 0 min 2 min 0 W/m 27,0 km/h (4 Bft) 100,00 %
03.01.2018 02:44 8,8 C 8,3 C 7,2 C 97 % 15 lf 991,8 hPa 0,0 l/m 0 min 2 min 0 W/m 47,3 km/h (6 Bft) 100,00 %
03.01.2018 02:46 8,8 C 8,3 C 7,2 C 97 % 15 lf 991,7 hPa 0,0 l/m 0 min 2 min 0 W/m 27,0 km/h (4 Bft) 95,74 %
03.01.2018 02:48 8,8 C 8,3 C 7,2 C 97 % 15 lf 991,7 hPa 0,2 l/m 0 min 2 min 0 W/m 40,6 km/h (6 Bft) 100,00 %
03.01.2018 02:50 8,9 C 8,3 C 7,2 C 97 % 15 lf 991,4 hPa 0,0 l/m 0 min 2 min 0 W/m 42,8 km/h (6 Bft) 100,00 %
03.01.2018 02:52 8,9 C 8,3 C 7,2 C 97 % 15 lf 991,2 hPa 0,0 l/m 0 min 2 min 0 W/m 42,8 km/h (6 Bft) 97,87 %
03.01.2018 02:54 8,9 C 8,3 C 7,2 C 97 % 15 lf 991,1 hPa 0,0 l/m 0 min 2 min 0 W/m 45,1 km/h (6 Bft) 97,87 %
03.01.2018 02:56 8,9 C 8,3 C 7,2 C 97 % 15 lf 991,0 hPa 0,2 l/m 0 min 2 min 0 W/m 36,0 km/h (5 Bft) 97,83 %
03.01.2018 02:58 8,9 C 8,3 C 7,2 C 97 % 15 lf 990,8 hPa 0,0 l/m 0 min 2 min 0 W/m 33,8 km/h (5 Bft) 97,87 %
03.01.2018 03:00 9,0 C 8,3 C 7,2 C 97 % 15 lf 990,7 hPa 0,0 l/m 0 min 2 min 0 W/m 47,3 km/h (6 Bft) 95,74 %
03.01.2018 03:02 9,0 C 8,3 C 7,2 C 97 % 15 lf 990,5 hPa 0,2 l/m 0 min 2 min 0 W/m 36,0 km/h (5 Bft) 97,87 %
03.01.2018 03:04 9,1 C 8,3 C 7,2 C 97 % 15 lf 990,4 hPa 0,0 l/m 0 min 2 min 0 W/m 40,6 km/h (6 Bft) 97,87 %
03.01.2018 03:06 9,1 C 8,3 C 7,2 C 97 % 15 lf 990,3 hPa 0,0 l/m 0 min 2 min 0 W/m 29,3 km/h (5 Bft) 93,62 %
03.01.2018 03:08 9,1 C 8,3 C 7,2 C 97 % 15 lf 990,1 hPa 0,2 l/m 0 min 2 min 0 W/m 36,0 km/h (5 Bft) 97,83 %
03.01.2018 03:10 9,1 C 8,3 C 7,2 C 97 % 15 lf 990,1 hPa 0,0 l/m 0 min 2 min 0 W/m 45,1 km/h (6 Bft) 97,87 %
03.01.2018 03:12 9,2 C 8,3 C 7,2 C 97 % 15 lf 989,9 hPa 0,0 l/m 0 min 2 min 0 W/m 36,0 km/h (5 Bft) 97,87 %
03.01.2018 03:14 9,2 C 8,3 C 7,8 C 97 % 15 lf 989,8 hPa 0,0 l/m 0 min 2 min 0 W/m 36,0 km/h (5 Bft) 97,87 %
03.01.2018 03:16 9,2 C 8,3 C 7,8 C 97 % 15 lf 989,8 hPa 0,0 l/m 0 min 2 min 0 W/m 31,5 km/h (5 Bft) 95,74 %
03.01.2018 03:18 9,2 C 8,3 C 7,8 C 97 % 15 lf 989,6 hPa 0,0 l/m 0 min 2 min 0 W/m 24,8 km/h (4 Bft) 95,65 %
03.01.2018 03:20 9,2 C 8,9 C 7,8 C 97 % 15 lf 989,7 hPa 0,2 l/m 0 min 2 min 0 W/m 31,5 km/h (5 Bft) 97,87 %
03.01.2018 03:22 9,3 C 8,9 C 7,8 C 97 % 15 lf 989,4 hPa 0,0 l/m 0 min 2 min 0 W/m 29,3 km/h (5 Bft) 97,87 %
03.01.2018 03:24 9,3 C 8,9 C 7,8 C 97 % 15 lf 989,3 hPa 0,0 l/m 0 min 2 min 0 W/m 27,0 km/h (4 Bft) 95,74 %
03.01.2018 03:26 9,3 C 8,9 C 7,8 C 97 % 15 lf 989,3 hPa 0,2 l/m 0 min 2 min 0 W/m 22,5 km/h (4 Bft) 97,87 %
03.01.2018 03:28 9,3 C 8,9 C 7,8 C 97 % 15 lf 989,2 hPa 0,2 l/m 0 min 2 min 0 W/m 29,3 km/h (5 Bft) 95,74 %
03.01.2018 03:30 9,3 C 8,9 C 7,8 C 97 % 15 lf 988,9 hPa 0,0 l/m 0 min 2 min 0 W/m 40,6 km/h (6 Bft) 93,48 %
03.01.2018 03:32 9,4 C 8,9 C 7,8 C 97 % 15 lf 988,9 hPa 0,2 l/m 0 min 2 min 0 W/m 33,8 km/h (5 Bft) 97,87 %
03.01.2018 03:34 9,4 C 8,9 C 7,8 C 97 % 15 lf 988,8 hPa 0,0 l/m 0 min 2 min 0 W/m 31,5 km/h (5 Bft) 97,87 %
03.01.2018 03:36 9,4 C 8,9 C 7,8 C 97 % 15 lf 988,5 hPa 0,0 l/m 0 min 2 min 0 W/m 47,3 km/h (6 Bft) 95,74 %
03.01.2018 03:38 9,4 C 8,9 C 7,8 C 97 % 15 lf 988,6 hPa 0,0 l/m 0 min 2 min 0 W/m 29,3 km/h (5 Bft) 97,87 %
03.01.2018 03:40 9,5 C 8,9 C 7,8 C 97 % 15 lf 988,5 hPa 0,2 l/m 0 min 2 min 0 W/m 29,3 km/h (5 Bft) 97,87 %
03.01.2018 03:42 9,5 C 8,9 C 7,8 C 97 % 15 lf 988,4 hPa 0,0 l/m 0 min 2 min 0 W/m 36,0 km/h (5 Bft) 97,83 %
03.01.2018 03:44 9,6 C 8,9 C 7,8 C 97 % 15 lf 988,5 hPa 0,0 l/m 0 min 2 min 0 W/m 38,3 km/h (5 Bft) 97,87 %
03.01.2018 03:46 9,6 C 9,4 C 7,8 C 97 % 15 lf 988,4 hPa 0,0 l/m 0 min 2 min 0 W/m 31,5 km/h (5 Bft) 91,49 %
03.01.2018 03:48 9,7 C 9,4 C 8,3 C 97 % 15 lf 988,2 hPa 0,0 l/m 0 min 2 min 0 W/m 38,3 km/h (5 Bft) 95,74 %
03.01.2018 03:50 9,7 C 9,4 C 8,3 C 97 % 15 lf 988,0 hPa 0,0 l/m 0 min 2 min 0 W/m 49,6 km/h (6 Bft) 95,74 %
03.01.2018 03:52 9,8 C 9,4 C 8,3 C 97 % 15 lf 987,8 hPa 0,0 l/m 0 min 2 min 0 W/m 36,0 km/h (5 Bft) 95,74 %
03.01.2018 03:54 9,9 C 9,4 C 8,3 C 98 % 15 lf 987,8 hPa 0,0 l/m 0 min 2 min 0 W/m 40,6 km/h (6 Bft) 95,65 %
03.01.2018 03:56 9,9 C 9,4 C 8,3 C 98 % 15 lf 987,7 hPa 0,0 l/m 0 min 2 min 0 W/m 40,6 km/h (6 Bft) 93,62 %
03.01.2018 03:58 9,9 C 9,4 C 8,3 C 98 % 15 lf 987,6 hPa 0,0 l/m 0 min 2 min 0 W/m 31,5 km/h (5 Bft) 93,62 %
03.01.2018 04:00 10,0 C 9,4 C 8,3 C 97 % 15 lf 987,5 hPa 0,0 l/m 0 min 2 min 0 W/m 49,6 km/h (6 Bft) 97,87 %
03.01.2018 04:02 10,1 C 9,4 C 8,3 C 97 % 15 lf 987,2 hPa 0,0 l/m 0 min 2 min 0 W/m 40,6 km/h (6 Bft) 100,00 %
03.01.2018 04:04 10,1 C 9,4 C 8,3 C 97 % 15 lf 987,2 hPa 0,0 l/m 0 min 2 min 0 W/m 42,8 km/h (6 Bft) 97,87 %
03.01.2018 04:06 10,2 C 9,4 C 8,3 C 97 % 15 lf 986,7 hPa 0,0 l/m 0 min 2 min 0 W/m 58,6 km/h (7 Bft) 95,65 %
03.01.2018 04:08 10,2 C 9,4 C 8,3 C 98 % 15 lf 986,9 hPa 0,0 l/m 0 min 2 min 0 W/m 38,3 km/h (5 Bft) 95,74 %
03.01.2018 04:10 10,2 C 9,4 C 8,3 C 98 % 15 lf 986,6 hPa 0,0 l/m 0 min 2 min 0 W/m 38,3 km/h (5 Bft) 93,62 %
03.01.2018 04:12 10,3 C 9,4 C 8,3 C 98 % 15 lf 986,5 hPa 0,0 l/m 0 min 2 min 0 W/m 42,8 km/h (6 Bft) 89,36 %
03.01.2018 04:14 10,3 C 9,4 C 8,9 C 97 % 15 lf 986,4 hPa 0,0 l/m 0 min 2 min 0 W/m 58,6 km/h (7 Bft) 93,62 %
03.01.2018 04:16 10,4 C 9,4 C 8,9 C 97 % 15 lf 986,5 hPa 0,2 l/m 0 min 2 min 0 W/m 47,3 km/h (6 Bft) 93,62 %
03.01.2018 04:18 10,4 C 9,4 C 8,9 C 97 % 15 lf 986,3 hPa 0,2 l/m 0 min 2 min 0 W/m 42,8 km/h (6 Bft) 95,65 %
03.01.2018 04:20 10,4 C 10,0 C 8,9 C 97 % 15 lf 985,9 hPa 0,0 l/m 0 min 2 min 0 W/m 51,8 km/h (7 Bft) 97,87 %
03.01.2018 04:22 10,4 C 10,0 C 8,9 C 97 % 15 lf 985,9 hPa 0,2 l/m 0 min 2 min 0 W/m 47,3 km/h (6 Bft) 97,87 %
03.01.2018 04:24 10,5 C 10,0 C 8,9 C 97 % 15 lf 985,9 hPa 0,0 l/m 0 min 2 min 0 W/m 47,3 km/h (6 Bft) 91,49 %
03.01.2018 04:26 10,6 C 10,0 C 8,9 C 97 % 15 lf 985,9 hPa 0,2 l/m 0 min 2 min 0 W/m 49,6 km/h (6 Bft) 97,87 %
03.01.2018 04:28 10,6 C 10,0 C 8,9 C 97 % 15 lf 985,9 hPa 0,0 l/m 0 min 2 min 0 W/m 36,0 km/h (5 Bft) 93,48 %
03.01.2018 04:30 10,6 C 10,0 C 8,9 C 97 % 15 lf 985,7 hPa 0,2 l/m 0 min 2 min 0 W/m 49,6 km/h (6 Bft) 95,74 %
03.01.2018 04:32 10,7 C 10,0 C 8,9 C 97 % 15 lf 985,6 hPa 0,2 l/m 0 min 2 min 0 W/m 40,6 km/h (6 Bft) 97,87 %
03.01.2018 04:34 10,7 C 10,0 C 8,9 C 97 % 15 lf 985,4 hPa 0,0 l/m 0 min 2 min 0 W/m 40,6 km/h (6 Bft) 95,74 %
03.01.2018 04:36 10,7 C 10,0 C 8,9 C 97 % 15 lf 985,5 hPa 0,0 l/m 0 min 2 min 0 W/m 31,5 km/h (5 Bft) 97,87 %
03.01.2018 04:38 10,7 C 10,0 C 8,9 C 97 % 15 lf 985,6 hPa 0,2 l/m 0 min 2 min 0 W/m 38,3 km/h (5 Bft) 97,87 %
03.01.2018 04:40 10,7 C 10,0 C 8,9 C 97 % 15 lf 985,1 hPa 0,0 l/m 0 min 2 min 0 W/m 27,0 km/h (4 Bft) 91,30 %
03.01.2018 04:42 10,8 C 10,0 C 8,9 C 97 % 15 lf 985,0 hPa 0,0 l/m 0 min 2 min 0 W/m 40,6 km/h (6 Bft) 95,74 %
03.01.2018 04:44 10,8 C 10,0 C 8,9 C 97 % 15 lf 985,2 hPa 0,2 l/m 0 min 2 min 0 W/m 45,1 km/h (6 Bft) 91,49 %
03.01.2018 04:46 10,8 C 10,0 C 8,9 C 97 % 15 lf 985,3 hPa 0,0 l/m 0 min 2 min 0 W/m 47,3 km/h (6 Bft) 95,74 %
03.01.2018 04:48 10,8 C 10,0 C 8,9 C 97 % 15 lf 985,4 hPa 0,0 l/m 0 min 2 min 0 W/m 56,3 km/h (7 Bft) 95,74 %
03.01.2018 04:50 10,8 C 10,0 C 8,9 C 97 % 15 lf 985,3 hPa 0,4 l/m 0 min 2 min 0 W/m 49,6 km/h (6 Bft) 95,74 %
03.01.2018 04:52 10,9 C 10,0 C 8,9 C 97 % 15 lf 985,1 hPa 0,0 l/m 0 min 2 min 0 W/m 60,8 km/h (7 Bft) 95,65 %
03.01.2018 04:54 10,9 C 10,0 C 8,9 C 97 % 15 lf 985,4 hPa 0,2 l/m 0 min 2 min 0 W/m 45,1 km/h (6 Bft) 97,87 %
03.01.2018 04:56 10,9 C 10,0 C 8,9 C 97 % 15 lf 985,1 hPa 0,4 l/m 0 min 2 min 0 W/m 22,5 km/h (4 Bft) 97,87 %
03.01.2018 04:58 10,9 C 10,0 C 8,9 C 97 % 15 lf 985,4 hPa 0,2 l/m 0 min 2 min 0 W/m 47,3 km/h (6 Bft) 95,74 %
03.01.2018 05:00 10,9 C 10,0 C 9,4 C 97 % 15 lf 985,2 hPa 0,6 l/m 0 min 2 min 0 W/m 45,1 km/h (6 Bft) 97,87 %
03.01.2018 05:02 10,9 C 10,0 C 9,4 C 97 % 15 lf 985,4 hPa 0,4 l/m 0 min 2 min 0 W/m 45,1 km/h (6 Bft) 97,87 %
03.01.2018 05:04 10,9 C 10,0 C 9,4 C 97 % 15 lf 985,4 hPa 0,4 l/m 0 min 2 min 0 W/m 42,8 km/h (6 Bft) 95,65 %
03.01.2018 05:06 10,9 C 10,0 C 9,4 C 97 % 15 lf 985,5 hPa 0,6 l/m 0 min 2 min 0 W/m 33,8 km/h (5 Bft) 97,87 %
03.01.2018 05:08 10,9 C 10,0 C 9,4 C 97 % 15 lf 985,7 hPa 0,6 l/m 0 min 2 min 0 W/m 69,8 km/h (8 Bft) 95,74 %
03.01.2018 05:10 10,9 C 10,0 C 8,9 C 97 % 15 lf 985,8 hPa 0,2 l/m 0 min 2 min 0 W/m 65,3 km/h (8 Bft) 97,87 %
03.01.2018 05:12 10,8 C 9,4 C 8,9 C 97 % 15 lf 986,3 hPa 0,2 l/m 0 min 2 min 0 W/m 87,9 km/h (9 Bft) 95,74 %
03.01.2018 05:14 10,6 C 8,9 C 8,3 C 97 % 15 lf 986,5 hPa 0,2 l/m 0 min 2 min 0 W/m 81,1 km/h (9 Bft) 97,87 %
03.01.2018 05:16 10,4 C 8,9 C 8,3 C 96 % 15 lf 986,9 hPa 0,2 l/m 0 min 2 min 0 W/m 63,1 km/h (8 Bft) 95,65 %
03.01.2018 05:18 10,2 C 8,3 C 7,8 C 96 % 15 lf 986,8 hPa 0,0 l/m 0 min 2 min 0 W/m 81,1 km/h (9 Bft) 95,74 %
03.01.2018 05:20 10,0 C 8,3 C 7,2 C 96 % 15 lf 986,6 hPa 0,2 l/m 0 min 2 min 0 W/m 40,6 km/h (6 Bft) 97,87 %
03.01.2018 05:22 9,8 C 8,3 C 7,2 C 95 % 15 lf 986,4 hPa 0,0 l/m 0 min 2 min 0 W/m 58,6 km/h (7 Bft) 95,74 %
03.01.2018 05:24 9,7 C 8,3 C 7,2 C 95 % 15 lf 986,5 hPa 0,0 l/m 0 min 2 min 0 W/m 49,6 km/h (6 Bft) 95,74 %
03.01.2018 05:26 9,6 C 8,3 C 7,2 C 95 % 15 lf 986,7 hPa 0,0 l/m 0 min 2 min 0 W/m 42,8 km/h (6 Bft) 100,00 %
03.01.2018 05:28 9,5 C 8,3 C 7,2 C 94 % 15 lf 986,5 hPa 0,0 l/m 0 min 2 min 0 W/m 42,8 km/h (6 Bft) 100,00 %
03.01.2018 05:30 9,4 C 8,3 C 7,2 C 94 % 15 lf 986,5 hPa 0,0 l/m 0 min 2 min 0 W/m 40,6 km/h (6 Bft) 97,87 %
03.01.2018 05:32 9,4 C 7,8 C 7,2 C 94 % 15 lf 986,4 hPa 0,0 l/m 0 min 2 min 0 W/m 49,6 km/h (6 Bft) 100,00 %
03.01.2018 05:34 9,4 C 7,8 C 7,2 C 93 % 15 lf 986,3 hPa 0,0 l/m 0 min 2 min 0 W/m 38,3 km/h (5 Bft) 95,74 %
03.01.2018 05:35 9,4 C 7,8 C 7,2 C 93 % 15 lf 986,4 hPa 0,0 l/m 0 min 1 min 0 W/m 49,6 km/h (6 Bft) 100,00 %
03.01.2018 05:38 9,3 C 8,3 C 7,2 C 93 % 15 lf 985,6 hPa 0,0 l/m 0 min 3 min 0 W/m 20,3 km/h (4 Bft) 93,33 %
03.01.2018 05:40 9,4 C 8,3 C 7,2 C 92 % 15 lf 985,6 hPa 0,0 l/m 0 min 2 min 0 W/m 38,3 km/h (5 Bft) 100,00 %
03.01.2018 05:42 9,4 C 8,3 C 7,2 C 92 % 15 lf 985,4 hPa 0,0 l/m 0 min 2 min 0 W/m 38,3 km/h (5 Bft) 95,65 %
03.01.2018 05:44 9,4 C 8,3 C 7,2 C 92 % 15 lf 985,6 hPa 0,0 l/m 0 min 2 min 0 W/m 45,1 km/h (6 Bft) 91,49 %
03.01.2018 05:46 9,4 C 8,3 C 7,2 C 92 % 15 lf 985,6 hPa 0,0 l/m 0 min 2 min 0 W/m 42,8 km/h (6 Bft) 97,87 %
03.01.2018 05:48 9,5 C 8,3 C 7,2 C 91 % 15 lf 985,3 hPa 0,0 l/m 0 min 2 min 0 W/m 36,0 km/h (5 Bft) 93,48 %
03.01.2018 05:50 9,5 C 8,3 C 7,2 C 91 % 15 lf 985,2 hPa 0,0 l/m 0 min 2 min 0 W/m 49,6 km/h (6 Bft) 95,74 %
03.01.2018 05:52 9,5 C 8,3 C 7,2 C 91 % 15 lf 985,3 hPa 0,0 l/m 0 min 2 min 0 W/m 36,0 km/h (5 Bft) 97,87 %
03.01.2018 05:54 9,6 C 8,3 C 7,2 C 91 % 15 lf 985,4 hPa 0,0 l/m 0 min 2 min 0 W/m 38,3 km/h (5 Bft) 97,87 %
03.01.2018 05:56 9,6 C 8,3 C 7,2 C 91 % 15 lf 985,5 hPa 0,0 l/m 0 min 2 min 0 W/m 38,3 km/h (5 Bft) 97,87 %
03.01.2018 05:58 9,6 C 8,3 C 7,2 C 91 % 15 lf 985,7 hPa 0,0 l/m 0 min 2 min 0 W/m 47,3 km/h (6 Bft) 95,74 %
03.01.2018 06:00 9,6 C 8,3 C 7,2 C 90 % 15 lf 985,8 hPa 0,0 l/m 0 min 2 min 0 W/m 38,3 km/h (5 Bft) 97,83 %
03.01.2018 06:02 9,7 C 8,3 C 7,2 C 90 % 15 lf 985,8 hPa 0,0 l/m 0 min 2 min 0 W/m 45,1 km/h (6 Bft) 95,74 %
03.01.2018 06:04 9,7 C 8,3 C 7,2 C 90 % 15 lf 985,8 hPa 0,0 l/m 0 min 0 min 0 W/m 38,3 km/h (5 Bft) 97,87 %
03.01.2018 06:06 9,7 C 8,3 C 7,2 C 90 % 15 lf 985,9 hPa 0,0 l/m 0 min 2 min 0 W/m 51,8 km/h (7 Bft) 95,74 %
03.01.2018 06:08 9,6 C 8,3 C 6,7 C 90 % 15 lf 985,9 hPa 0,0 l/m 0 min 2 min 0 W/m 33,8 km/h (5 Bft) 97,87 %
03.01.2018 06:10 9,6 C 8,3 C 6,7 C 89 % 15 lf 985,9 hPa 0,0 l/m 0 min 2 min 0 W/m 36,0 km/h (5 Bft) 97,87 %
03.01.2018 06:12 9,6 C 8,3 C 6,7 C 89 % 15 lf 985,9 hPa 0,0 l/m 0 min 2 min 0 W/m 40,6 km/h (6 Bft) 100,00 %
03.01.2018 06:14 9,6 C 8,3 C 6,7 C 89 % 15 lf 985,9 hPa 0,0 l/m 0 min 0 min 0 W/m 36,0 km/h (5 Bft) 100,00 %
03.01.2018 06:16 9,6 C 8,3 C 6,7 C 89 % 15 lf 985,9 hPa 0,0 l/m 0 min 0 min 0 W/m 45,1 km/h (6 Bft) 100,00 %
03.01.2018 06:18 9,5 C 8,3 C 6,7 C 89 % 15 lf 986,0 hPa 0,0 l/m 0 min 2 min 0 W/m 40,6 km/h (6 Bft) 100,00 %
03.01.2018 06:20 9,5 C 8,3 C 6,7 C 89 % 15 lf 986,0 hPa 0,0 l/m 0 min 0 min 0 W/m 36,0 km/h (5 Bft) 95,74 %
03.01.2018 06:22 9,5 C 7,8 C 6,7 C 89 % 15 lf 986,1 hPa 0,0 l/m 0 min 0 min 0 W/m 27,0 km/h (4 Bft) 100,00 %
03.01.2018 06:24 9,4 C 7,8 C 6,7 C 89 % 15 lf 986,3 hPa 0,0 l/m 0 min 0 min 0 W/m 40,6 km/h (6 Bft) 95,65 %
03.01.2018 06:26 9,4 C 8,3 C 6,7 C 89 % 15 lf 986,3 hPa 0,0 l/m 0 min 0 min 0 W/m 33,8 km/h (5 Bft) 100,00 %
03.01.2018 06:28 9,4 C 8,3 C 6,7 C 89 % 15 lf 986,4 hPa 0,0 l/m 0 min 0 min 0 W/m 42,8 km/h (6 Bft) 100,00 %
03.01.2018 06:30 9,4 C 8,3 C 6,7 C 89 % 15 lf 986,4 hPa 0,0 l/m 0 min 0 min 0 W/m 38,3 km/h (5 Bft) 97,87 %
03.01.2018 06:32 9,4 C 8,3 C 6,7 C 89 % 15 lf 986,4 hPa 0,0 l/m 0 min 0 min 0 W/m 36,0 km/h (5 Bft) 100,00 %
03.01.2018 06:34 9,4 C 8,3 C 6,7 C 89 % 15 lf 986,5 hPa 0,0 l/m 0 min 0 min 0 W/m 42,8 km/h (6 Bft) 100,00 %
03.01.2018 06:36 9,4 C 8,3 C 6,7 C 90 % 15 lf 986,3 hPa 0,0 l/m 0 min 0 min 0 W/m 40,6 km/h (6 Bft) 100,00 %
03.01.2018 06:38 9,4 C 8,3 C 6,7 C 90 % 15 lf 986,4 hPa 0,0 l/m 0 min 2 min 0 W/m 36,0 km/h (5 Bft) 97,87 %
03.01.2018 06:40 9,4 C 8,3 C 6,7 C 90 % 15 lf 986,4 hPa 0,0 l/m 0 min 2 min 0 W/m 36,0 km/h (5 Bft) 97,87 %
03.01.2018 06:42 9,4 C 8,3 C 6,7 C 90 % 15 lf 986,5 hPa 0,2 l/m 0 min 2 min 0 W/m 42,8 km/h (6 Bft) 91,49 %
03.01.2018 06:44 9,4 C 8,3 C 6,7 C 90 % 15 lf 986,5 hPa 0,0 l/m 0 min 2 min 0 W/m 18,0 km/h (3 Bft) 95,74 %
03.01.2018 06:46 9,4 C 7,8 C 6,7 C 91 % 15 lf 986,5 hPa 0,2 l/m 0 min 2 min 0 W/m 20,3 km/h (4 Bft) 95,65 %
03.01.2018 06:48 9,4 C 7,8 C 6,7 C 91 % 15 lf 986,5 hPa 0,0 l/m 0 min 2 min 0 W/m 18,0 km/h (3 Bft) 95,74 %
03.01.2018 06:50 9,4 C 7,8 C 6,7 C 91 % 15 lf 986,7 hPa 0,0 l/m 0 min 0 min 0 W/m 20,3 km/h (4 Bft) 97,87 %
03.01.2018 06:52 9,3 C 7,8 C 6,7 C 91 % 15 lf 986,6 hPa 0,0 l/m 0 min 0 min 0 W/m 22,5 km/h (4 Bft) 95,74 %
03.01.2018 06:54 9,3 C 7,8 C 6,7 C 91 % 15 lf 986,5 hPa 0,0 l/m 0 min 0 min 0 W/m 20,3 km/h (4 Bft) 97,87 %
03.01.2018 06:56 9,3 C 8,3 C 6,7 C 91 % 15 lf 986,4 hPa 0,0 l/m 0 min 0 min 0 W/m 33,8 km/h (5 Bft) 95,74 %
03.01.2018 06:58 9,3 C 8,3 C 6,7 C 92 % 15 lf 986,5 hPa 0,0 l/m 0 min 0 min 0 W/m 42,8 km/h (6 Bft) 95,65 %
03.01.2018 07:00 9,3 C 8,3 C 7,2 C 92 % 15 lf 986,5 hPa 0,0 l/m 0 min 0 min 0 W/m 38,3 km/h (5 Bft) 91,49 %
03.01.2018 07:02 9,3 C 8,3 C 7,2 C 92 % 15 lf 986,5 hPa 0,0 l/m 0 min 0 min 0 W/m 38,3 km/h (5 Bft) 87,23 %
03.01.2018 07:04 9,3 C 8,3 C 7,2 C 92 % 15 lf 986,5 hPa 0,0 l/m 0 min 0 min 0 W/m 38,3 km/h (5 Bft) 93,62 %
03.01.2018 07:06 9,3 C 8,3 C 7,2 C 92 % 15 lf 986,4 hPa 0,0 l/m 0 min 0 min 0 W/m 31,5 km/h (5 Bft) 91,49 %
03.01.2018 07:08 9,3 C 8,3 C 7,2 C 91 % 15 lf 986,3 hPa 0,0 l/m 0 min 0 min 0 W/m 36,0 km/h (5 Bft) 93,62 %
03.01.2018 07:10 9,3 C 8,3 C 7,2 C 91 % 15 lf 986,3 hPa 0,0 l/m 0 min 0 min 0 W/m 31,5 km/h (5 Bft) 91,30 %
03.01.2018 07:12 9,3 C 8,3 C 7,2 C 91 % 15 lf 986,3 hPa 0,0 l/m 0 min 0 min 0 W/m 31,5 km/h (5 Bft) 95,74 %
03.01.2018 07:14 9,3 C 8,3 C 6,7 C 91 % 15 lf 986,0 hPa 0,0 l/m 0 min 0 min 0 W/m 38,3 km/h (5 Bft) 95,74 %
03.01.2018 07:16 9,3 C 8,3 C 6,7 C 91 % 15 lf 986,0 hPa 0,0 l/m 0 min 0 min 0 W/m 42,8 km/h (6 Bft) 91,49 %
03.01.2018 07:18 9,3 C 8,3 C 6,7 C 91 % 15 lf 985,9 hPa 0,0 l/m 0 min 0 min 0 W/m 36,0 km/h (5 Bft) 91,49 %
03.01.2018 07:20 9,4 C 8,3 C 6,7 C 90 % 15 lf 985,8 hPa 0,0 l/m 0 min 0 min 0 W/m 31,5 km/h (5 Bft) 93,62 %
03.01.2018 07:22 9,4 C 8,3 C 6,7 C 90 % 15 lf 985,8 hPa 0,0 l/m 0 min 0 min 0 W/m 29,3 km/h (5 Bft) 91,30 %
03.01.2018 07:24 9,4 C 8,3 C 6,7 C 90 % 15 lf 985,8 hPa 0,0 l/m 0 min 0 min 0 W/m 38,3 km/h (5 Bft) 91,49 %
03.01.2018 07:26 9,4 C 8,9 C 6,7 C 90 % 15 lf 985,8 hPa 0,0 l/m 0 min 0 min 0 W/m 29,3 km/h (5 Bft) 89,36 %
03.01.2018 07:28 9,4 C 8,9 C 6,7 C 90 % 15 lf 985,8 hPa 0,0 l/m 0 min 0 min 0 W/m 29,3 km/h (5 Bft) 93,62 %
03.01.2018 07:30 9,4 C 9,4 C 6,7 C 89 % 15 lf 985,8 hPa 0,0 l/m 0 min 0 min 0 W/m 36,0 km/h (5 Bft) 91,49 %
03.01.2018 07:32 9,4 C 9,4 C 6,7 C 89 % 15 lf 985,9 hPa 0,0 l/m 0 min 0 min 0 W/m 36,0 km/h (5 Bft) 91,49 %
03.01.2018 07:34 9,4 C 9,4 C 6,7 C 88 % 15 lf 985,8 hPa 0,0 l/m 0 min 0 min 0 W/m 40,6 km/h (6 Bft) 93,48 %
03.01.2018 07:36 9,4 C 9,4 C 6,7 C 88 % 15 lf 985,7 hPa 0,0 l/m 0 min 0 min 0 W/m 33,8 km/h (5 Bft) 93,62 %
03.01.2018 07:38 9,4 C 9,4 C 6,7 C 88 % 15 lf 985,6 hPa 0,0 l/m 0 min 0 min 0 W/m 36,0 km/h (5 Bft) 91,49 %
03.01.2018 07:40 9,4 C 9,4 C 6,7 C 88 % 15 lf 985,5 hPa 0,0 l/m 0 min 0 min 0 W/m 33,8 km/h (5 Bft) 89,36 %
03.01.2018 07:42 9,4 C 9,4 C 6,7 C 87 % 15 lf 985,4 hPa 0,0 l/m 0 min 0 min 0 W/m 36,0 km/h (5 Bft) 87,23 %
03.01.2018 07:44 9,5 C 9,4 C 6,7 C 87 % 15 lf 985,3 hPa 0,0 l/m 0 min 0 min 0 W/m 33,8 km/h (5 Bft) 91,49 %
03.01.2018 07:46 9,5 C 9,4 C 6,7 C 87 % 14 lf 985,3 hPa 0,0 l/m 0 min 0 min 0 W/m 38,3 km/h (5 Bft) 93,48 %
03.01.2018 07:48 9,5 C 9,4 C 6,7 C 87 % 12 lf 985,2 hPa 0,0 l/m 0 min 0 min 0 W/m 45,1 km/h (6 Bft) 95,74 %
03.01.2018 07:50 9,5 C 9,4 C 6,7 C 86 % 9 lf 985,3 hPa 0,0 l/m 0 min 0 min 0 W/m 42,8 km/h (6 Bft) 95,74 %
03.01.2018 07:52 9,5 C 9,4 C 6,7 C 86 % 6 lf 985,3 hPa 0,0 l/m 0 min 0 min 0 W/m 33,8 km/h (5 Bft) 95,74 %
03.01.2018 07:54 9,5 C 9,4 C 6,7 C 86 % 4 lf 985,3 hPa 0,0 l/m 0 min 0 min 0 W/m 29,3 km/h (5 Bft) 95,74 %
03.01.2018 07:56 9,5 C 9,4 C 6,7 C 86 % 1 lf 985,4 hPa 0,0 l/m 0 min 0 min 0 W/m 42,8 km/h (6 Bft) 93,62 %
03.01.2018 07:58 9,5 C 9,4 C 6,7 C 85 % 0 lf 985,4 hPa 0,0 l/m 0 min 0 min 0 W/m 58,6 km/h (7 Bft) 95,65 %
03.01.2018 08:00 9,5 C 9,4 C 6,7 C 84 % 0 lf 985,3 hPa 0,0 l/m 0 min 0 min 0 W/m 38,3 km/h (5 Bft) 97,87 %
03.01.2018 08:02 9,5 C 9,4 C 6,7 C 84 % 0 lf 985,2 hPa 0,0 l/m 0 min 0 min 0 W/m 51,8 km/h (7 Bft) 97,92 %
03.01.2018 08:04 9,6 C 9,4 C 6,7 C 84 % 0 lf 985,3 hPa 0,0 l/m 0 min 0 min 0 W/m 45,1 km/h (6 Bft) 95,74 %
03.01.2018 08:06 9,5 C 7,8 C 5,6 C 84 % 15 lf 985,8 hPa 0,0 l/m 0 min 2 min 0 W/m 96,9 km/h (10 Bft) 95,74 %
03.01.2018 08:08 8,8 C 5,6 C 2,8 C 82 % 15 lf 987,4 hPa 0,6 l/m 0 min 2 min 0 W/m 74,3 km/h (8 Bft) 100,00 %
03.01.2018 08:10 8,1 C 3,9 C 2,2 C 81 % 15 lf 987,1 hPa 0,4 l/m 0 min 2 min 0 W/m 60,8 km/h (7 Bft) 100,00 %
03.01.2018 08:12 7,3 C 3,3 C 0,6 C 82 % 15 lf 986,8 hPa 0,8 l/m 0 min 2 min 0 W/m 54,1 km/h (7 Bft) 97,87 %
03.01.2018 08:14 6,6 C 3,3 C 1,1 C 83 % 15 lf 986,7 hPa 0,4 l/m 0 min 2 min 0 W/m 69,8 km/h (8 Bft) 100,00 %
03.01.2018 08:16 6,1 C 3,3 C 1,7 C 84 % 15 lf 986,9 hPa 0,6 l/m 0 min 2 min 0 W/m 47,3 km/h (6 Bft) 100,00 %
03.01.2018 08:18 5,6 C 3,3 C 2,2 C 86 % 15 lf 986,8 hPa 0,6 l/m 0 min 2 min 0 W/m 49,6 km/h (6 Bft) 100,00 %
03.01.2018 08:20 5,4 C 3,3 C 2,2 C 88 % 15 lf 986,7 hPa 0,2 l/m 0 min 2 min 0 W/m 45,1 km/h (6 Bft) 100,00 %
03.01.2018 08:22 5,2 C 3,9 C 2,8 C 89 % 15 lf 986,5 hPa 0,0 l/m 0 min 2 min 0 W/m 45,1 km/h (6 Bft) 97,87 %
03.01.2018 08:24 5,1 C 3,9 C 2,8 C 90 % 15 lf 986,6 hPa 0,0 l/m 0 min 2 min 0 W/m 47,3 km/h (6 Bft) 97,87 %
03.01.2018 08:26 5,0 C 3,9 C 2,8 C 91 % 15 lf 986,7 hPa 0,0 l/m 0 min 0 min 0 W/m 33,8 km/h (5 Bft) 100,00 %
03.01.2018 08:28 5,0 C 3,9 C 3,3 C 92 % 15 lf 986,6 hPa 0,0 l/m 0 min 0 min 0 W/m 36,0 km/h (5 Bft) 97,87 %
03.01.2018 08:30 5,0 C 4,4 C 3,3 C 92 % 15 lf 986,6 hPa 0,0 l/m 0 min 0 min 0 W/m 42,8 km/h (6 Bft) 97,87 %
03.01.2018 08:32 5,1 C 4,4 C 3,3 C 93 % 15 lf 986,5 hPa 0,0 l/m 0 min 0 min 0 W/m 38,3 km/h (5 Bft) 100,00 %
03.01.2018 08:34 5,1 C 4,4 C 3,3 C 93 % 15 lf 986,6 hPa 0,0 l/m 0 min 0 min 0 W/m 31,5 km/h (5 Bft) 100,00 %
03.01.2018 08:36 5,2 C 4,4 C 3,3 C 94 % 15 lf 986,8 hPa 0,0 l/m 0 min 0 min 0 W/m 40,6 km/h (6 Bft) 97,83 %
03.01.2018 08:38 5,2 C 5,0 C 3,9 C 94 % 15 lf 986,9 hPa 0,0 l/m 0 min 0 min 0 W/m 42,8 km/h (6 Bft) 100,00 %
03.01.2018 08:40 5,3 C 5,0 C 3,9 C 94 % 15 lf 986,9 hPa 0,0 l/m 0 min 0 min 3 W/m 36,0 km/h (5 Bft) 100,00 %
03.01.2018 08:42 5,4 C 5,0 C 3,9 C 95 % 15 lf 987,0 hPa 0,0 l/m 0 min 0 min 1 W/m 24,8 km/h (4 Bft) 100,00 %
03.01.2018 08:44 5,5 C 5,0 C 3,9 C 95 % 15 lf 987,0 hPa 0,0 l/m 0 min 0 min 2 W/m 42,8 km/h (6 Bft) 100,00 %
03.01.2018 08:46 5,6 C 5,0 C 3,9 C 95 % 15 lf 987,0 hPa 0,2 l/m 0 min 0 min 5 W/m 45,1 km/h (6 Bft) 97,87 %
03.01.2018 08:48 5,6 C 5,0 C 3,9 C 95 % 15 lf 987,1 hPa 0,0 l/m 0 min 0 min 5 W/m 45,1 km/h (6 Bft) 97,83 %
03.01.2018 08:50 5,7 C 5,6 C 3,9 C 95 % 15 lf 987,1 hPa 0,0 l/m 0 min 0 min 5 W/m 45,1 km/h (6 Bft) 100,00 %
03.01.2018 08:52 5,8 C 5,6 C 4,4 C 95 % 15 lf 987,1 hPa 0,0 l/m 0 min 0 min 6 W/m 40,6 km/h (6 Bft) 100,00 %
03.01.2018 08:54 5,8 C 5,6 C 4,4 C 95 % 15 lf 987,1 hPa 0,0 l/m 0 min 0 min 7 W/m 40,6 km/h (6 Bft) 95,74 %
03.01.2018 08:56 5,9 C 5,6 C 4,4 C 95 % 15 lf 987,2 hPa 0,0 l/m 0 min 2 min 6 W/m 38,3 km/h (5 Bft) 97,87 %
03.01.2018 08:58 6,0 C 5,6 C 4,4 C 95 % 15 lf 987,2 hPa 0,0 l/m 0 min 2 min 6 W/m 63,1 km/h (8 Bft) 100,00 %
03.01.2018 09:00 6,1 C 5,6 C 4,4 C 95 % 15 lf 987,1 hPa 0,0 l/m 0 min 2 min 8 W/m 38,3 km/h (5 Bft) 100,00 %
03.01.2018 09:02 6,1 C 5,6 C 4,4 C 95 % 15 lf 987,1 hPa 0,0 l/m 0 min 0 min 11 W/m 49,6 km/h (6 Bft) 97,87 %
03.01.2018 09:04 6,2 C 5,6 C 4,4 C 95 % 15 lf 987,3 hPa 0,0 l/m 0 min 0 min 11 W/m 47,3 km/h (6 Bft) 100,00 %
03.01.2018 09:06 6,3 C 5,6 C 4,4 C 95 % 15 lf 987,3 hPa 0,0 l/m 0 min 0 min 11 W/m 51,8 km/h (7 Bft) 97,87 %
03.01.2018 09:08 6,4 C 6,1 C 4,4 C 95 % 15 lf 987,5 hPa 0,0 l/m 0 min 0 min 11 W/m 31,5 km/h (5 Bft) 100,00 %
03.01.2018 09:10 6,4 C 5,6 C 4,4 C 95 % 15 lf 987,3 hPa 0,0 l/m 0 min 0 min 11 W/m 29,3 km/h (5 Bft) 97,83 %
03.01.2018 09:12 6,4 C 5,6 C 4,4 C 95 % 15 lf 987,2 hPa 0,0 l/m 0 min 0 min 12 W/m 33,8 km/h (5 Bft) 97,87 %
03.01.2018 09:14 6,4 C 5,6 C 4,4 C 95 % 15 lf 987,3 hPa 0,0 l/m 0 min 0 min 12 W/m 36,0 km/h (5 Bft) 97,87 %
03.01.2018 09:16 6,4 C 5,6 C 4,4 C 95 % 15 lf 987,3 hPa 0,0 l/m 0 min 0 min 12 W/m 36,0 km/h (5 Bft) 93,62 %
03.01.2018 09:18 6,5 C 5,6 C 4,4 C 95 % 15 lf 987,3 hPa 0,0 l/m 0 min 0 min 14 W/m 31,5 km/h (5 Bft) 97,87 %
03.01.2018 09:20 6,5 C 5,6 C 4,4 C 95 % 15 lf 987,3 hPa 0,0 l/m 0 min 0 min 16 W/m 33,8 km/h (5 Bft) 100,00 %
03.01.2018 09:22 6,6 C 5,6 C 4,4 C 94 % 15 lf 987,4 hPa 0,0 l/m 0 min 0 min 16 W/m 38,3 km/h (5 Bft) 97,87 %
03.01.2018 09:24 6,6 C 6,1 C 4,4 C 94 % 15 lf 987,5 hPa 0,0 l/m 0 min 0 min 15 W/m 31,5 km/h (5 Bft) 97,14 %
03.01.2018 09:26 6,6 C 6,1 C 4,4 C 94 % 15 lf 987,4 hPa 0,0 l/m 0 min 0 min 19 W/m 36,0 km/h (5 Bft) 97,87 %
03.01.2018 09:28 6,7 C 6,1 C 4,4 C 94 % 15 lf 987,4 hPa 0,0 l/m 0 min 0 min 24 W/m 42,8 km/h (6 Bft) 97,87 %
03.01.2018 09:30 6,7 C 6,1 C 4,4 C 93 % 15 lf 987,4 hPa 0,0 l/m 0 min 0 min 25 W/m 33,8 km/h (5 Bft) 97,87 %
03.01.2018 09:32 6,8 C 6,1 C 4,4 C 93 % 15 lf 987,4 hPa 0,0 l/m 0 min 0 min 24 W/m 40,6 km/h (6 Bft) 97,87 %
03.01.2018 09:34 6,8 C 6,1 C 4,4 C 93 % 15 lf 987,5 hPa 0,0 l/m 0 min 0 min 22 W/m 42,8 km/h (6 Bft) 95,65 %
03.01.2018 09:36 6,8 C 6,1 C 4,4 C 92 % 15 lf 987,6 hPa 0,0 l/m 0 min 0 min 19 W/m 40,6 km/h (6 Bft) 97,87 %
03.01.2018 09:38 6,9 C 6,1 C 4,4 C 92 % 15 lf 987,6 hPa 0,0 l/m 0 min 0 min 18 W/m 36,0 km/h (5 Bft) 95,74 %
03.01.2018 09:40 6,9 C 6,1 C 4,4 C 91 % 15 lf 987,5 hPa 0,0 l/m 0 min 0 min 18 W/m 31,5 km/h (5 Bft) 97,87 %
03.01.2018 09:42 6,9 C 6,1 C 4,4 C 91 % 15 lf 987,6 hPa 0,0 l/m 0 min 0 min 19 W/m 45,1 km/h (6 Bft) 93,62 %
03.01.2018 09:44 7,0 C 6,1 C 4,4 C 91 % 15 lf 987,7 hPa 0,0 l/m 0 min 0 min 13 W/m 49,6 km/h (6 Bft) 97,87 %
03.01.2018 09:46 7,0 C 6,1 C 4,4 C 90 % 15 lf 987,7 hPa 0,0 l/m 0 min 0 min 12 W/m 47,3 km/h (6 Bft) 100,00 %
03.01.2018 09:48 7,1 C 6,1 C 4,4 C 90 % 15 lf 987,8 hPa 0,0 l/m 0 min 0 min 11 W/m 40,6 km/h (6 Bft) 93,62 %
03.01.2018 09:50 7,1 C 6,1 C 4,4 C 89 % 14 lf 987,8 hPa 0,0 l/m 0 min 0 min 11 W/m 27,0 km/h (4 Bft) 96,61 %
03.01.2018 09:52 7,1 C 6,1 C 4,4 C 89 % 15 lf 987,9 hPa 0,0 l/m 0 min 0 min 12 W/m 31,5 km/h (5 Bft) 94,29 %
03.01.2018 09:54 7,1 C 6,1 C 4,4 C 89 % 15 lf 987,8 hPa 0,0 l/m 0 min 2 min 16 W/m 27,0 km/h (4 Bft) 97,87 %
03.01.2018 09:56 7,2 C 6,1 C 4,4 C 89 % 15 lf 988,1 hPa 0,0 l/m 0 min 2 min 20 W/m 29,3 km/h (5 Bft) 95,65 %
03.01.2018 09:58 7,2 C 6,1 C 4,4 C 88 % 15 lf 988,0 hPa 0,0 l/m 0 min 0 min 24 W/m 24,8 km/h (4 Bft) 89,36 %
03.01.2018 10:00 7,2 C 6,1 C 4,4 C 88 % 14 lf 988,1 hPa 0,0 l/m 0 min 2 min 22 W/m 33,8 km/h (5 Bft) 93,62 %
03.01.2018 10:02 7,1 C 6,1 C 4,4 C 88 % 13 lf 988,2 hPa 0,0 l/m 0 min 0 min 20 W/m 24,8 km/h (4 Bft) 95,74 %
03.01.2018 10:04 7,2 C 6,1 C 4,4 C 88 % 15 lf 988,2 hPa 0,0 l/m 0 min 0 min 22 W/m 24,8 km/h (4 Bft) 93,62 %
03.01.2018 10:06 7,2 C 6,1 C 5,0 C 88 % 15 lf 988,4 hPa 0,0 l/m 0 min 2 min 34 W/m 56,3 km/h (7 Bft) 93,62 %
03.01.2018 10:08 7,2 C 6,7 C 5,0 C 88 % 15 lf 988,5 hPa 0,0 l/m 0 min 2 min 24 W/m 45,1 km/h (6 Bft) 95,65 %
03.01.2018 10:10 7,2 C 6,7 C 4,4 C 87 % 15 lf 988,5 hPa 0,0 l/m 0 min 2 min 21 W/m 45,1 km/h (6 Bft) 93,62 %
03.01.2018 10:12 7,2 C 6,1 C 4,4 C 87 % 15 lf 988,6 hPa 0,0 l/m 0 min 2 min 22 W/m 33,8 km/h (5 Bft) 93,62 %
03.01.2018 10:14 7,2 C 6,7 C 4,4 C 87 % 15 lf 988,7 hPa 0,2 l/m 0 min 2 min 36 W/m 51,8 km/h (7 Bft) 93,62 %
03.01.2018 10:16 7,2 C 6,7 C 4,4 C 87 % 15 lf 988,7 hPa 0,0 l/m 0 min 2 min 63 W/m 42,8 km/h (6 Bft) 93,62 %
03.01.2018 10:18 7,2 C 6,7 C 5,0 C 87 % 15 lf 988,7 hPa 0,0 l/m 0 min 2 min 64 W/m 51,8 km/h (7 Bft) 95,74 %
03.01.2018 10:20 7,2 C 7,2 C 4,4 C 86 % 15 lf 988,7 hPa 0,0 l/m 0 min 2 min 56 W/m 54,1 km/h (7 Bft) 93,10 %
03.01.2018 10:22 7,2 C 7,2 C 4,4 C 86 % 15 lf 988,8 hPa 0,0 l/m 0 min 2 min 47 W/m 58,6 km/h (7 Bft) 85,71 %
03.01.2018 10:24 7,2 C 7,2 C 4,4 C 86 % 15 lf 988,9 hPa 0,0 l/m 0 min 2 min 42 W/m 56,3 km/h (7 Bft) 95,74 %
03.01.2018 10:26 7,2 C 7,2 C 4,4 C 85 % 15 lf 988,9 hPa 0,0 l/m 0 min 2 min 50 W/m 47,3 km/h (6 Bft) 95,74 %
03.01.2018 10:28 7,2 C 7,2 C 4,4 C 85 % 13 lf 988,9 hPa 0,0 l/m 0 min 2 min 64 W/m 58,6 km/h (7 Bft) 93,62 %
03.01.2018 10:30 7,1 C 7,2 C 4,4 C 85 % 10 lf 989,0 hPa 0,0 l/m 0 min 2 min 75 W/m 60,8 km/h (7 Bft) 93,62 %
03.01.2018 10:32 7,1 C 7,8 C 4,4 C 85 % 2 lf 989,0 hPa 0,0 l/m 0 min 2 min 88 W/m 65,3 km/h (8 Bft) 89,13 %
03.01.2018 10:34 7,2 C 7,2 C 4,4 C 85 % 0 lf 989,0 hPa 0,0 l/m 0 min 2 min 61 W/m 45,1 km/h (6 Bft) 95,74 %
03.01.2018 10:36 7,2 C 7,2 C 4,4 C 85 % 0 lf 989,0 hPa 0,0 l/m 0 min 2 min 63 W/m 51,8 km/h (7 Bft) 97,87 %
03.01.2018 10:38 7,2 C 7,8 C 4,4 C 85 % 0 lf 989,1 hPa 0,0 l/m 0 min 2 min 82 W/m 58,6 km/h (7 Bft) 93,62 %
03.01.2018 10:40 7,2 C 7,8 C 4,4 C 85 % 0 lf 989,2 hPa 0,0 l/m 0 min 2 min 78 W/m 42,8 km/h (6 Bft) 89,36 %
03.01.2018 10:42 7,2 C 7,8 C 4,4 C 85 % 0 lf 989,2 hPa 0,0 l/m 0 min 2 min 64 W/m 47,3 km/h (6 Bft) 95,74 %
03.01.2018 10:44 7,2 C 7,8 C 5,0 C 85 % 0 lf 989,1 hPa 0,0 l/m 2 min 2 min 108 W/m 45,1 km/h (6 Bft) 95,65 %
03.01.2018 10:46 7,2 C 7,8 C 5,0 C 84 % 0 lf 989,2 hPa 0,0 l/m 2 min 0 min 114 W/m 38,3 km/h (5 Bft) 97,87 %
03.01.2018 10:48 7,3 C 7,8 C 5,0 C 85 % 0 lf 989,2 hPa 0,0 l/m 2 min 0 min 107 W/m 49,6 km/h (6 Bft) 97,87 %
03.01.2018 10:50 7,3 C 7,8 C 5,0 C 85 % 0 lf 989,2 hPa 0,0 l/m 0 min 2 min 80 W/m 47,3 km/h (6 Bft) 98,31 %
03.01.2018 10:52 7,3 C 7,8 C 5,0 C 84 % 0 lf 989,2 hPa 0,0 l/m 0 min 2 min 67 W/m 47,3 km/h (6 Bft) 94,29 %
03.01.2018 10:54 7,3 C 7,8 C 5,0 C 84 % 0 lf 989,2 hPa 0,0 l/m 0 min 0 min 71 W/m 42,8 km/h (6 Bft) 95,74 %
03.01.2018 10:56 7,3 C 7,8 C 5,0 C 84 % 0 lf 989,4 hPa 0,0 l/m 0 min 0 min 63 W/m 45,1 km/h (6 Bft) 95,65 %
03.01.2018 10:58 7,4 C 7,8 C 5,0 C 84 % 0 lf 989,3 hPa 0,0 l/m 0 min 2 min 57 W/m 40,6 km/h (6 Bft) 91,49 %
03.01.2018 11:00 7,4 C 7,8 C 5,0 C 84 % 0 lf 989,3 hPa 0,0 l/m 0 min 0 min 85 W/m 58,6 km/h (7 Bft) 95,74 %
03.01.2018 11:02 7,4 C 7,8 C 5,0 C 83 % 0 lf 989,4 hPa 0,0 l/m 0 min 0 min 86 W/m 63,1 km/h (8 Bft) 93,62 %
03.01.2018 11:04 7,5 C 7,8 C 5,0 C 83 % 0 lf 989,5 hPa 0,0 l/m 0 min 0 min 62 W/m 42,8 km/h (6 Bft) 95,74 %
03.01.2018 11:06 7,5 C 7,8 C 5,0 C 83 % 0 lf 989,4 hPa 0,0 l/m 0 min 0 min 55 W/m 38,3 km/h (5 Bft) 93,62 %
03.01.2018 11:08 7,5 C 7,8 C 5,0 C 82 % 0 lf 989,4 hPa 0,0 l/m 0 min 0 min 53 W/m 49,6 km/h (6 Bft) 97,83 %
03.01.2018 11:10 7,6 C 7,8 C 5,0 C 81 % 0 lf 989,4 hPa 0,0 l/m 0 min 0 min 49 W/m 47,3 km/h (6 Bft) 97,87 %
03.01.2018 11:12 7,6 C 7,8 C 5,0 C 81 % 0 lf 989,4 hPa 0,0 l/m 0 min 0 min 52 W/m 45,1 km/h (6 Bft) 93,62 %
03.01.2018 11:14 7,6 C 7,8 C 5,0 C 81 % 0 lf 989,5 hPa 0,0 l/m 0 min 0 min 45 W/m 40,6 km/h (6 Bft) 95,74 %
03.01.2018 11:16 7,6 C 7,8 C 5,6 C 81 % 0 lf 989,4 hPa 0,0 l/m 0 min 0 min 40 W/m 45,1 km/h (6 Bft) 91,49 %
03.01.2018 11:18 7,7 C 7,8 C 5,6 C 81 % 0 lf 989,4 hPa 0,0 l/m 0 min 0 min 34 W/m 54,1 km/h (7 Bft) 95,65 %
03.01.2018 11:20 7,7 C 7,8 C 5,6 C 80 % 0 lf 989,4 hPa 0,0 l/m 0 min 0 min 51 W/m 54,1 km/h (7 Bft) 93,22 %
03.01.2018 11:22 7,7 C 7,8 C 6,1 C 80 % 0 lf 989,4 hPa 0,0 l/m 0 min 0 min 69 W/m 40,6 km/h (6 Bft) 94,29 %
03.01.2018 11:24 7,7 C 8,3 C 6,1 C 80 % 1 lf 989,4 hPa 0,0 l/m 0 min 0 min 93 W/m 49,6 km/h (6 Bft) 95,74 %
03.01.2018 11:26 7,8 C 8,3 C 6,1 C 80 % 2 lf 989,5 hPa 0,0 l/m 0 min 2 min 100 W/m 47,3 km/h (6 Bft) 93,62 %
03.01.2018 11:28 7,8 C 8,3 C 6,1 C 80 % 1 lf 989,4 hPa 0,0 l/m 0 min 2 min 112 W/m 63,1 km/h (8 Bft) 95,74 %
03.01.2018 11:30 7,8 C 8,3 C 6,7 C 80 % 1 lf 989,5 hPa 0,0 l/m 2 min 2 min 134 W/m 58,6 km/h (7 Bft) 95,74 %
03.01.2018 11:32 7,9 C 8,9 C 6,7 C 79 % 0 lf 989,5 hPa 0,0 l/m 2 min 0 min 156 W/m 65,3 km/h (8 Bft) 95,65 %
03.01.2018 11:34 7,9 C 8,9 C 6,7 C 79 % 0 lf 989,5 hPa 0,0 l/m 2 min 0 min 137 W/m 60,8 km/h (7 Bft) 93,62 %
03.01.2018 11:36 8,0 C 8,3 C 6,7 C 79 % 0 lf 989,4 hPa 0,0 l/m 0 min 0 min 123 W/m 65,3 km/h (8 Bft) 95,74 %
03.01.2018 11:38 8,1 C 8,3 C 6,7 C 79 % 2 lf 989,6 hPa 0,0 l/m 0 min 2 min 106 W/m 49,6 km/h (6 Bft) 93,62 %
03.01.2018 11:40 8,1 C 8,3 C 6,7 C 79 % 1 lf 989,5 hPa 0,0 l/m 0 min 2 min 115 W/m 45,1 km/h (6 Bft) 93,62 %
03.01.2018 11:42 8,1 C 8,3 C 6,7 C 79 % 1 lf 989,6 hPa 0,0 l/m 2 min 2 min 132 W/m 45,1 km/h (6 Bft) 95,65 %
03.01.2018 11:44 8,1 C 8,3 C 6,7 C 79 % 0 lf 989,5 hPa 0,0 l/m 0 min 0 min 131 W/m 56,3 km/h (7 Bft) 97,87 %
03.01.2018 11:46 8,1 C 8,3 C 6,7 C 79 % 0 lf 989,6 hPa 0,0 l/m 0 min 0 min 111 W/m 38,3 km/h (5 Bft) 97,87 %
03.01.2018 11:48 8,1 C 8,3 C 6,7 C 79 % 0 lf 989,7 hPa 0,0 l/m 0 min 0 min 104 W/m 56,3 km/h (7 Bft) 97,87 %
03.01.2018 11:50 8,1 C 8,3 C 6,7 C 79 % 2 lf 989,7 hPa 0,0 l/m 0 min 0 min 120 W/m 38,3 km/h (5 Bft) 100,00 %
03.01.2018 11:52 8,1 C 8,3 C 6,7 C 80 % 3 lf 989,6 hPa 0,0 l/m 0 min 2 min 120 W/m 51,8 km/h (7 Bft) 100,00 %
03.01.2018 11:54 8,1 C 8,3 C 6,7 C 80 % 6 lf 989,6 hPa 0,0 l/m 0 min 2 min 95 W/m 49,6 km/h (6 Bft) 100,00 %
03.01.2018 11:56 8,1 C 7,8 C 6,1 C 80 % 10 lf 989,7 hPa 0,0 l/m 0 min 2 min 77 W/m 49,6 km/h (6 Bft) 95,74 %
03.01.2018 11:58 8,1 C 7,8 C 6,1 C 79 % 15 lf 989,8 hPa 0,0 l/m 0 min 2 min 76 W/m 67,6 km/h (8 Bft) 100,00 %
03.01.2018 12:00 8,0 C 7,8 C 5,6 C 79 % 15 lf 989,8 hPa 0,0 l/m 0 min 2 min 78 W/m 63,1 km/h (8 Bft) 97,87 %
03.01.2018 12:02 8,0 C 7,2 C 5,6 C 80 % 15 lf 989,9 hPa 0,0 l/m 0 min 2 min 85 W/m 54,1 km/h (7 Bft) 97,87 %
03.01.2018 12:04 7,9 C 7,2 C 5,6 C 81 % 15 lf 990,0 hPa 0,0 l/m 0 min 2 min 72 W/m 65,3 km/h (8 Bft) 100,00 %
03.01.2018 12:06 7,9 C 7,2 C 5,6 C 81 % 15 lf 990,0 hPa 0,0 l/m 0 min 2 min 67 W/m 54,1 km/h (7 Bft) 100,00 %
03.01.2018 12:08 7,8 C 7,2 C 5,6 C 81 % 15 lf 990,0 hPa 0,0 l/m 0 min 2 min 57 W/m 56,3 km/h (7 Bft) 98,11 %
03.01.2018 12:10 7,8 C 7,2 C 5,0 C 82 % 15 lf 990,0 hPa 0,0 l/m 0 min 2 min 54 W/m 60,8 km/h (7 Bft) 100,00 %
03.01.2018 12:12 7,7 C 7,2 C 5,0 C 82 % 15 lf 990,1 hPa 0,0 l/m 0 min 2 min 54 W/m 56,3 km/h (7 Bft) 100,00 %
03.01.2018 12:14 7,7 C 7,2 C 5,0 C 83 % 15 lf 990,2 hPa 0,0 l/m 0 min 2 min 60 W/m 69,8 km/h (8 Bft) 100,00 %
03.01.2018 12:16 7,6 C 6,7 C 5,0 C 83 % 15 lf 990,3 hPa 0,0 l/m 0 min 2 min 56 W/m 56,3 km/h (7 Bft) 97,87 %
03.01.2018 12:18 7,5 C 6,7 C 5,0 C 83 % 15 lf 990,3 hPa 0,0 l/m 0 min 2 min 48 W/m 58,6 km/h (7 Bft) 100,00 %
03.01.2018 12:20 7,4 C 6,7 C 5,0 C 84 % 15 lf 990,3 hPa 0,0 l/m 0 min 2 min 46 W/m 42,8 km/h (6 Bft) 97,83 %
03.01.2018 12:22 7,4 C 7,2 C 5,0 C 84 % 15 lf 990,6 hPa 0,0 l/m 0 min 2 min 45 W/m 56,3 km/h (7 Bft) 97,87 %
03.01.2018 12:24 7,4 C 7,2 C 5,0 C 84 % 15 lf 990,2 hPa 0,0 l/m 0 min 2 min 50 W/m 81,1 km/h (9 Bft) 97,87 %
03.01.2018 12:26 7,4 C 7,2 C 5,0 C 84 % 15 lf 990,5 hPa 0,0 l/m 0 min 2 min 51 W/m 42,8 km/h (6 Bft) 100,00 %
03.01.2018 12:28 7,3 C 7,2 C 5,0 C 84 % 15 lf 990,6 hPa 0,0 l/m 0 min 2 min 46 W/m 38,3 km/h (5 Bft) 100,00 %
03.01.2018 12:30 7,3 C 7,2 C 5,0 C 84 % 15 lf 990,5 hPa 0,0 l/m 0 min 2 min 57 W/m 45,1 km/h (6 Bft) 100,00 %
03.01.2018 12:32 7,3 C 7,2 C 5,0 C 85 % 15 lf 990,4 hPa 0,0 l/m 0 min 2 min 63 W/m 60,8 km/h (7 Bft) 100,00 %
03.01.2018 12:34 7,3 C 7,2 C 5,0 C 84 % 15 lf 990,5 hPa 0,0 l/m 0 min 2 min 53 W/m 56,3 km/h (7 Bft) 97,87 %
03.01.2018 12:36 7,3 C 7,2 C 5,0 C 84 % 15 lf 990,6 hPa 0,0 l/m 0 min 2 min 49 W/m 78,9 km/h (9 Bft) 95,74 %
03.01.2018 12:38 7,3 C 7,2 C 5,0 C 84 % 15 lf 990,6 hPa 0,0 l/m 0 min 2 min 48 W/m 63,1 km/h (8 Bft) 97,87 %
03.01.2018 12:40 7,3 C 7,2 C 5,0 C 84 % 15 lf 990,7 hPa 0,0 l/m 0 min 2 min 42 W/m 42,8 km/h (6 Bft) 97,87 %
03.01.2018 12:42 7,3 C 7,2 C 5,0 C 85 % 15 lf 990,9 hPa 0,0 l/m 0 min 2 min 50 W/m 60,8 km/h (7 Bft) 91,30 %
03.01.2018 12:44 7,3 C 6,7 C 5,0 C 85 % 15 lf 991,0 hPa 0,0 l/m 0 min 2 min 50 W/m 51,8 km/h (7 Bft) 95,74 %
03.01.2018 12:46 7,3 C 6,7 C 5,0 C 85 % 15 lf 990,9 hPa 0,0 l/m 0 min 2 min 47 W/m 69,8 km/h (8 Bft) 93,62 %
03.01.2018 12:48 7,2 C 6,7 C 5,0 C 85 % 15 lf 991,0 hPa 0,0 l/m 0 min 2 min 44 W/m 58,6 km/h (7 Bft) 93,62 %
03.01.2018 12:50 7,2 C 6,7 C 5,0 C 85 % 15 lf 991,1 hPa 0,0 l/m 0 min 2 min 44 W/m 60,8 km/h (7 Bft) 95,74 %
03.01.2018 12:52 7,2 C 6,7 C 5,0 C 85 % 15 lf 991,2 hPa 0,0 l/m 0 min 2 min 51 W/m 40,6 km/h (6 Bft) 91,49 %
03.01.2018 12:54 7,1 C 6,1 C 4,4 C 86 % 15 lf 991,1 hPa 0,0 l/m 0 min 2 min 51 W/m 60,8 km/h (7 Bft) 95,65 %
03.01.2018 12:56 7,1 C 6,1 C 4,4 C 87 % 15 lf 991,2 hPa 0,2 l/m 0 min 2 min 52 W/m 51,8 km/h (7 Bft) 95,74 %
03.01.2018 12:58 7,0 C 6,1 C 4,4 C 87 % 15 lf 991,2 hPa 0,0 l/m 0 min 2 min 62 W/m 49,6 km/h (6 Bft) 93,62 %
03.01.2018 13:00 6,9 C 6,1 C 4,4 C 87 % 15 lf 991,2 hPa 0,0 l/m 0 min 2 min 76 W/m 63,1 km/h (8 Bft) 95,74 %
03.01.2018 13:02 6,9 C 6,1 C 4,4 C 88 % 15 lf 991,2 hPa 0,0 l/m 0 min 2 min 85 W/m 63,1 km/h (8 Bft) 90,48 %
03.01.2018 13:04 6,9 C 6,1 C 5,0 C 88 % 15 lf 991,2 hPa 0,0 l/m 0 min 2 min 88 W/m 47,3 km/h (6 Bft) 93,48 %
03.01.2018 13:06 6,9 C 6,1 C 5,0 C 88 % 15 lf 991,3 hPa 0,0 l/m 0 min 2 min 94 W/m 63,1 km/h (8 Bft) 93,62 %
03.01.2018 13:08 6,8 C 6,1 C 5,0 C 88 % 15 lf 991,4 hPa 0,0 l/m 0 min 2 min 101 W/m 67,6 km/h (8 Bft) 91,49 %
03.01.2018 13:10 6,8 C 6,1 C 5,0 C 89 % 15 lf 991,2 hPa 0,0 l/m 0 min 2 min 107 W/m 56,3 km/h (7 Bft) 95,74 %
03.01.2018 13:12 6,8 C 6,7 C 5,0 C 89 % 15 lf 991,2 hPa 0,0 l/m 0 min 2 min 110 W/m 60,8 km/h (7 Bft) 87,23 %
03.01.2018 13:14 6,8 C 6,7 C 5,0 C 89 % 15 lf 991,3 hPa 0,0 l/m 0 min 2 min 109 W/m 54,1 km/h (7 Bft) 93,62 %
03.01.2018 13:16 6,9 C 6,7 C 5,0 C 89 % 15 lf 991,3 hPa 0,0 l/m 0 min 2 min 102 W/m 56,3 km/h (7 Bft) 93,48 %
03.01.2018 13:18 6,9 C 6,7 C 5,0 C 89 % 15 lf 991,3 hPa 0,2 l/m 0 min 2 min 98 W/m 60,8 km/h (7 Bft) 91,49 %
03.01.2018 13:20 6,9 C 7,2 C 5,0 C 88 % 15 lf 991,4 hPa 0,0 l/m 0 min 2 min 102 W/m 58,6 km/h (7 Bft) 95,74 %
03.01.2018 13:22 6,9 C 7,2 C 5,6 C 88 % 15 lf 991,3 hPa 0,0 l/m 0 min 2 min 100 W/m 72,1 km/h (8 Bft) 97,87 %
03.01.2018 13:24 7,0 C 7,2 C 5,6 C 88 % 15 lf 991,5 hPa 0,0 l/m 0 min 2 min 102 W/m 81,1 km/h (9 Bft) 93,62 %
03.01.2018 13:26 7,1 C 7,2 C 5,6 C 88 % 15 lf 991,4 hPa 0,0 l/m 0 min 2 min 106 W/m 69,8 km/h (8 Bft) 95,74 %
03.01.2018 13:28 7,1 C 7,2 C 5,6 C 88 % 15 lf 991,4 hPa 0,0 l/m 0 min 2 min 106 W/m 49,6 km/h (6 Bft) 95,65 %
03.01.2018 13:30 7,1 C 7,2 C 5,6 C 88 % 15 lf 991,5 hPa 0,0 l/m 0 min 2 min 117 W/m 42,8 km/h (6 Bft) 93,62 %
03.01.2018 13:32 7,2 C 7,2 C 5,6 C 88 % 15 lf 991,6 hPa 0,0 l/m 0 min 2 min 113 W/m 54,1 km/h (7 Bft) 93,62 %
03.01.2018 13:34 7,2 C 7,2 C 5,6 C 88 % 15 lf 991,6 hPa 0,0 l/m 0 min 2 min 94 W/m 54,1 km/h (7 Bft) 93,62 %
03.01.2018 13:36 7,2 C 7,2 C 5,6 C 87 % 15 lf 991,6 hPa 0,0 l/m 0 min 2 min 76 W/m 45,1 km/h (6 Bft) 97,87 %
03.01.2018 13:38 7,2 C 7,2 C 5,6 C 87 % 15 lf 991,6 hPa 0,0 l/m 0 min 2 min 64 W/m 42,8 km/h (6 Bft) 100,00 %
03.01.2018 13:40 7,2 C 7,2 C 5,0 C 88 % 15 lf 991,7 hPa 0,0 l/m 0 min 2 min 61 W/m 56,3 km/h (7 Bft) 93,62 %
03.01.2018 13:42 7,2 C 7,2 C 5,0 C 87 % 15 lf 991,6 hPa 0,0 l/m 0 min 2 min 56 W/m 49,6 km/h (6 Bft) 97,87 %
03.01.2018 13:44 7,2 C 6,7 C 5,0 C 87 % 15 lf 991,8 hPa 0,0 l/m 0 min 2 min 69 W/m 51,8 km/h (7 Bft) 95,74 %
03.01.2018 13:46 7,3 C 6,7 C 5,0 C 88 % 15 lf 991,9 hPa 0,0 l/m 0 min 2 min 80 W/m 47,3 km/h (6 Bft) 100,00 %
03.01.2018 13:48 7,2 C 6,7 C 5,0 C 88 % 15 lf 991,9 hPa 0,0 l/m 0 min 2 min 75 W/m 47,3 km/h (6 Bft) 95,74 %
03.01.2018 13:50 7,3 C 6,7 C 5,0 C 88 % 15 lf 991,9 hPa 0,0 l/m 0 min 2 min 64 W/m 42,8 km/h (6 Bft) 100,00 %
03.01.2018 13:52 7,2 C 6,7 C 5,0 C 88 % 15 lf 991,9 hPa 0,0 l/m 0 min 2 min 51 W/m 60,8 km/h (7 Bft) 100,00 %
03.01.2018 13:54 7,3 C 6,7 C 5,0 C 88 % 15 lf 992,0 hPa 0,0 l/m 0 min 2 min 49 W/m 54,1 km/h (7 Bft) 100,00 %
03.01.2018 13:56 7,3 C 6,7 C 5,0 C 88 % 15 lf 992,0 hPa 0,0 l/m 0 min 2 min 47 W/m 51,8 km/h (7 Bft) 100,00 %
03.01.2018 13:58 7,3 C 6,7 C 5,0 C 88 % 15 lf 992,0 hPa 0,0 l/m 0 min 2 min 45 W/m 49,6 km/h (6 Bft) 97,87 %
03.01.2018 14:00 7,3 C 6,7 C 5,0 C 88 % 15 lf 992,1 hPa 0,0 l/m 0 min 2 min 42 W/m 49,6 km/h (6 Bft) 100,00 %
03.01.2018 14:02 7,3 C 6,7 C 5,0 C 88 % 15 lf 992,2 hPa 0,0 l/m 0 min 2 min 45 W/m 45,1 km/h (6 Bft) 97,83 %
03.01.2018 14:04 7,3 C 6,7 C 5,0 C 88 % 15 lf 992,1 hPa 0,0 l/m 0 min 2 min 41 W/m 51,8 km/h (7 Bft) 97,87 %
03.01.2018 14:06 7,3 C 6,7 C 5,0 C 88 % 15 lf 992,2 hPa 0,0 l/m 0 min 2 min 37 W/m 42,8 km/h (6 Bft) 100,00 %
03.01.2018 14:08 7,3 C 6,7 C 5,0 C 88 % 15 lf 992,2 hPa 0,0 l/m 0 min 2 min 37 W/m 36,0 km/h (5 Bft) 97,87 %
03.01.2018 14:10 7,3 C 6,7 C 5,0 C 88 % 15 lf 992,2 hPa 0,0 l/m 0 min 2 min 41 W/m 38,3 km/h (5 Bft) 100,00 %
03.01.2018 14:12 7,3 C 6,7 C 5,0 C 88 % 15 lf 992,4 hPa 0,0 l/m 0 min 2 min 48 W/m 58,6 km/h (7 Bft) 100,00 %
03.01.2018 14:14 7,3 C 6,7 C 5,0 C 88 % 15 lf 992,3 hPa 0,0 l/m 0 min 2 min 51 W/m 54,1 km/h (7 Bft) 97,87 %
03.01.2018 14:16 7,3 C 7,2 C 5,0 C 87 % 15 lf 992,3 hPa 0,0 l/m 0 min 2 min 56 W/m 42,8 km/h (6 Bft) 95,74 %
03.01.2018 14:18 7,3 C 7,2 C 5,0 C 87 % 15 lf 992,4 hPa 0,0 l/m 0 min 2 min 50 W/m 60,8 km/h (7 Bft) 100,00 %
03.01.2018 14:20 7,4 C 7,8 C 5,0 C 87 % 15 lf 992,7 hPa 0,0 l/m 0 min 2 min 43 W/m 60,8 km/h (7 Bft) 95,74 %
03.01.2018 14:22 7,5 C 7,8 C 5,0 C 86 % 15 lf 992,6 hPa 0,0 l/m 0 min 2 min 37 W/m 74,3 km/h (8 Bft) 93,62 %
03.01.2018 14:24 7,5 C 7,2 C 5,0 C 86 % 15 lf 992,5 hPa 0,0 l/m 0 min 2 min 39 W/m 58,6 km/h (7 Bft) 97,83 %
03.01.2018 14:26 7,5 C 7,2 C 5,0 C 86 % 15 lf 992,6 hPa 0,0 l/m 0 min 2 min 38 W/m 56,3 km/h (7 Bft) 97,87 %
03.01.2018 14:28 7,5 C 7,2 C 5,0 C 86 % 15 lf 992,7 hPa 0,0 l/m 0 min 2 min 35 W/m 51,8 km/h (7 Bft) 95,74 %
03.01.2018 14:30 7,5 C 6,7 C 5,0 C 86 % 15 lf 992,7 hPa 0,0 l/m 0 min 2 min 32 W/m 47,3 km/h (6 Bft) 97,87 %
03.01.2018 14:32 7,4 C 6,7 C 5,0 C 86 % 15 lf 992,8 hPa 0,0 l/m 0 min 2 min 25 W/m 45,1 km/h (6 Bft) 95,74 %
03.01.2018 14:34 7,4 C 6,7 C 5,0 C 87 % 15 lf 992,8 hPa 0,0 l/m 0 min 2 min 19 W/m 36,0 km/h (5 Bft) 97,87 %
03.01.2018 14:36 7,4 C 6,7 C 5,0 C 87 % 15 lf 992,8 hPa 0,0 l/m 0 min 2 min 14 W/m 29,3 km/h (5 Bft) 93,48 %
03.01.2018 14:38 7,3 C 6,7 C 5,0 C 87 % 15 lf 993,0 hPa 0,0 l/m 0 min 2 min 15 W/m 40,6 km/h (6 Bft) 91,49 %
03.01.2018 14:40 7,3 C 6,7 C 5,0 C 87 % 15 lf 992,9 hPa 0,0 l/m 0 min 2 min 19 W/m 42,8 km/h (6 Bft) 97,87 %
03.01.2018 14:42 7,3 C 6,7 C 5,0 C 87 % 15 lf 992,9 hPa 0,0 l/m 0 min 2 min 24 W/m 45,1 km/h (6 Bft) 97,87 %
03.01.2018 14:44 7,3 C 7,2 C 5,0 C 87 % 15 lf 992,8 hPa 0,2 l/m 0 min 2 min 37 W/m 51,8 km/h (7 Bft) 97,87 %
03.01.2018 14:46 7,4 C 7,2 C 5,0 C 87 % 15 lf 992,9 hPa 0,0 l/m 0 min 2 min 40 W/m 40,6 km/h (6 Bft) 89,36 %
03.01.2018 14:48 7,4 C 7,2 C 5,0 C 86 % 15 lf 992,9 hPa 0,0 l/m 0 min 2 min 41 W/m 36,0 km/h (5 Bft) 97,83 %
03.01.2018 14:50 7,4 C 7,8 C 5,0 C 86 % 15 lf 993,0 hPa 0,0 l/m 0 min 2 min 41 W/m 40,6 km/h (6 Bft) 97,87 %
03.01.2018 14:52 7,5 C 7,8 C 5,0 C 86 % 15 lf 993,0 hPa 0,0 l/m 0 min 2 min 35 W/m 51,8 km/h (7 Bft) 95,74 %
03.01.2018 14:54 7,6 C 7,8 C 5,6 C 85 % 15 lf 993,2 hPa 0,0 l/m 0 min 2 min 32 W/m 58,6 km/h (7 Bft) 95,74 %
03.01.2018 14:56 7,6 C 7,8 C 5,6 C 85 % 15 lf 993,1 hPa 0,0 l/m 0 min 2 min 36 W/m 54,1 km/h (7 Bft) 97,87 %
03.01.2018 14:58 7,7 C 7,8 C 5,6 C 84 % 15 lf 993,3 hPa 0,0 l/m 0 min 2 min 39 W/m 47,3 km/h (6 Bft) 97,87 %
03.01.2018 15:00 7,8 C 7,8 C 5,6 C 84 % 15 lf 993,3 hPa 0,0 l/m 0 min 2 min 38 W/m 47,3 km/h (6 Bft) 93,48 %
03.01.2018 15:02 7,8 C 7,8 C 5,6 C 84 % 10 lf 993,2 hPa 0,0 l/m 0 min 2 min 38 W/m 40,6 km/h (6 Bft) 97,87 %
03.01.2018 15:04 7,9 C 7,8 C 5,6 C 84 % 3 lf 993,3 hPa 0,0 l/m 0 min 2 min 39 W/m 45,1 km/h (6 Bft) 95,74 %
03.01.2018 15:06 7,9 C 8,3 C 5,6 C 83 % 0 lf 993,2 hPa 0,0 l/m 0 min 2 min 37 W/m 54,1 km/h (7 Bft) 97,87 %
03.01.2018 15:08 7,9 C 7,8 C 5,6 C 83 % 1 lf 993,4 hPa 0,0 l/m 0 min 2 min 33 W/m 49,6 km/h (6 Bft) 93,62 %
03.01.2018 15:10 7,9 C 7,8 C 5,6 C 83 % 0 lf 993,5 hPa 0,0 l/m 0 min 2 min 30 W/m 45,1 km/h (6 Bft) 93,62 %
03.01.2018 15:12 8,0 C 7,8 C 5,6 C 83 % 0 lf 993,6 hPa 0,0 l/m 0 min 2 min 34 W/m 74,3 km/h (8 Bft) 93,48 %
03.01.2018 15:14 8,0 C 8,3 C 5,6 C 83 % 0 lf 993,6 hPa 0,0 l/m 0 min 2 min 38 W/m 65,3 km/h (8 Bft) 89,36 %
03.01.2018 15:16 8,1 C 8,3 C 5,6 C 82 % 0 lf 993,6 hPa 0,0 l/m 0 min 2 min 31 W/m 56,3 km/h (7 Bft) 93,62 %
03.01.2018 15:18 8,1 C 7,8 C 5,6 C 82 % 0 lf 993,6 hPa 0,0 l/m 0 min 2 min 24 W/m 47,3 km/h (6 Bft) 91,49 %
03.01.2018 15:20 8,1 C 7,8 C 5,6 C 82 % 0 lf 993,6 hPa 0,0 l/m 0 min 2 min 21 W/m 56,3 km/h (7 Bft) 95,74 %
03.01.2018 15:22 8,1 C 7,8 C 5,6 C 82 % 0 lf 993,6 hPa 0,0 l/m 0 min 2 min 19 W/m 58,6 km/h (7 Bft) 93,48 %
03.01.2018 15:24 8,1 C 7,8 C 5,6 C 82 % 0 lf 993,7 hPa 0,0 l/m 0 min 2 min 19 W/m 54,1 km/h (7 Bft) 95,74 %
03.01.2018 15:26 8,1 C 7,8 C 5,6 C 82 % 1 lf 993,8 hPa 0,0 l/m 0 min 2 min 19 W/m 49,6 km/h (6 Bft) 95,74 %
03.01.2018 15:28 8,1 C 7,8 C 5,6 C 82 % 2 lf 993,7 hPa 0,0 l/m 0 min 2 min 19 W/m 51,8 km/h (7 Bft) 93,62 %
03.01.2018 15:30 8,1 C 7,8 C 5,6 C 82 % 0 lf 993,8 hPa 0,0 l/m 0 min 2 min 18 W/m 49,6 km/h (6 Bft) 87,23 %
03.01.2018 15:32 8,1 C 7,8 C 5,6 C 83 % 13 lf 993,9 hPa 0,0 l/m 0 min 2 min 18 W/m 56,3 km/h (7 Bft) 87,23 %
03.01.2018 15:34 8,1 C 7,8 C 5,6 C 83 % 11 lf 994,1 hPa 0,0 l/m 0 min 2 min 17 W/m 40,6 km/h (6 Bft) 93,62 %
03.01.2018 15:36 8,0 C 7,8 C 5,0 C 83 % 7 lf 994,1 hPa 0,0 l/m 0 min 2 min 14 W/m 58,6 km/h (7 Bft) 95,65 %
03.01.2018 15:38 8,0 C 7,8 C 5,6 C 83 % 3 lf 994,2 hPa 0,0 l/m 0 min 2 min 14 W/m 54,1 km/h (7 Bft) 95,74 %
03.01.2018 15:40 8,0 C 7,8 C 5,6 C 83 % 12 lf 994,2 hPa 0,0 l/m 0 min 2 min 15 W/m 47,3 km/h (6 Bft) 97,87 %
03.01.2018 15:42 8,0 C 7,8 C 5,6 C 83 % 5 lf 994,3 hPa 0,0 l/m 0 min 2 min 16 W/m 47,3 km/h (6 Bft) 91,49 %
03.01.2018 15:44 8,0 C 7,8 C 5,6 C 83 % 10 lf 994,2 hPa 0,0 l/m 0 min 2 min 19 W/m 49,6 km/h (6 Bft) 93,62 %
03.01.2018 15:46 8,0 C 7,8 C 5,6 C 83 % 7 lf 994,2 hPa 0,0 l/m 0 min 2 min 25 W/m 40,6 km/h (6 Bft) 93,62 %
03.01.2018 15:48 8,0 C 7,8 C 5,6 C 83 % 2 lf 994,2 hPa 0,0 l/m 0 min 2 min 22 W/m 49,6 km/h (6 Bft) 95,65 %
03.01.2018 15:50 8,0 C 7,8 C 5,6 C 83 % 1 lf 994,2 hPa 0,0 l/m 0 min 2 min 20 W/m 49,6 km/h (6 Bft) 93,62 %
03.01.2018 15:52 8,0 C 7,8 C 5,6 C 83 % 3 lf 994,2 hPa 0,0 l/m 0 min 2 min 21 W/m 54,1 km/h (7 Bft) 95,74 %
03.01.2018 15:54 8,1 C 7,8 C 5,6 C 83 % 5 lf 994,4 hPa 0,0 l/m 0 min 2 min 23 W/m 60,8 km/h (7 Bft) 95,74 %
03.01.2018 15:56 8,1 C 7,8 C 5,6 C 83 % 4 lf 994,3 hPa 0,0 l/m 0 min 2 min 25 W/m 72,1 km/h (8 Bft) 97,87 %
03.01.2018 15:58 8,1 C 7,8 C 5,6 C 83 % 3 lf 994,3 hPa 0,0 l/m 0 min 2 min 22 W/m 58,6 km/h (7 Bft) 97,87 %
03.01.2018 16:00 8,1 C 7,8 C 5,6 C 83 % 2 lf 994,4 hPa 0,0 l/m 0 min 2 min 19 W/m 67,6 km/h (8 Bft) 95,65 %
03.01.2018 16:02 8,1 C 7,8 C 5,6 C 83 % 3 lf 994,4 hPa 0,0 l/m 0 min 2 min 18 W/m 54,1 km/h (7 Bft) 89,36 %
03.01.2018 16:04 8,0 C 7,8 C 5,6 C 83 % 4 lf 994,4 hPa 0,0 l/m 0 min 2 min 15 W/m 58,6 km/h (7 Bft) 97,87 %
03.01.2018 16:06 8,0 C 7,8 C 5,6 C 83 % 4 lf 994,4 hPa 0,0 l/m 0 min 2 min 14 W/m 56,3 km/h (7 Bft) 97,87 %
03.01.2018 16:08 8,0 C 7,2 C 5,6 C 83 % 10 lf 994,5 hPa 0,0 l/m 0 min 2 min 12 W/m 54,1 km/h (7 Bft) 97,87 %
03.01.2018 16:10 7,9 C 7,2 C 5,6 C 83 % 15 lf 994,6 hPa 0,0 l/m 0 min 2 min 11 W/m 54,1 km/h (7 Bft) 95,65 %
03.01.2018 16:12 7,9 C 7,2 C 5,6 C 84 % 15 lf 994,6 hPa 0,0 l/m 0 min 2 min 11 W/m 67,6 km/h (8 Bft) 95,74 %
03.01.2018 16:14 7,9 C 7,2 C 5,6 C 84 % 15 lf 994,7 hPa 0,0 l/m 0 min 2 min 10 W/m 63,1 km/h (8 Bft) 97,87 %
03.01.2018 16:16 7,8 C 7,2 C 5,0 C 84 % 15 lf 994,8 hPa 0,0 l/m 0 min 2 min 9 W/m 38,3 km/h (5 Bft) 93,62 %
03.01.2018 16:18 7,8 C 6,7 C 5,0 C 84 % 15 lf 994,9 hPa 0,0 l/m 0 min 2 min 6 W/m 42,8 km/h (6 Bft) 95,74 %
03.01.2018 16:20 7,8 C 6,7 C 5,0 C 85 % 15 lf 995,0 hPa 0,0 l/m 0 min 2 min 5 W/m 49,6 km/h (6 Bft) 95,74 %
03.01.2018 16:22 7,7 C 6,7 C 5,0 C 86 % 15 lf 995,0 hPa 0,0 l/m 0 min 2 min 5 W/m 40,6 km/h (6 Bft) 95,65 %
03.01.2018 16:24 7,7 C 6,1 C 5,0 C 86 % 15 lf 995,0 hPa 0,0 l/m 0 min 2 min 2 W/m 31,5 km/h (5 Bft) 95,74 %
03.01.2018 16:26 7,6 C 6,1 C 5,0 C 86 % 15 lf 995,0 hPa 0,0 l/m 0 min 2 min 0 W/m 38,3 km/h (5 Bft) 95,74 %
03.01.2018 16:28 7,6 C 6,1 C 5,0 C 87 % 15 lf 995,1 hPa 0,0 l/m 0 min 2 min 0 W/m 45,1 km/h (6 Bft) 95,74 %
03.01.2018 16:30 7,6 C 6,1 C 5,0 C 87 % 15 lf 995,0 hPa 0,0 l/m 0 min 2 min 0 W/m 47,3 km/h (6 Bft) 97,87 %
03.01.2018 16:32 7,5 C 6,7 C 5,0 C 87 % 15 lf 995,1 hPa 0,0 l/m 0 min 2 min 0 W/m 38,3 km/h (5 Bft) 97,87 %
03.01.2018 16:34 7,5 C 6,7 C 5,0 C 87 % 15 lf 995,2 hPa 0,0 l/m 0 min 2 min 0 W/m 49,6 km/h (6 Bft) 100,00 %
03.01.2018 16:36 7,5 C 7,2 C 5,0 C 87 % 15 lf 995,2 hPa 0,0 l/m 0 min 2 min 0 W/m 56,3 km/h (7 Bft) 100,00 %
03.01.2018 16:38 7,5 C 7,2 C 5,0 C 87 % 15 lf 995,3 hPa 0,0 l/m 0 min 2 min 0 W/m 47,3 km/h (6 Bft) 97,87 %
03.01.2018 16:40 7,6 C 7,2 C 5,0 C 87 % 15 lf 995,3 hPa 0,0 l/m 0 min 2 min 0 W/m 47,3 km/h (6 Bft) 97,87 %
03.01.2018 16:42 7,6 C 7,2 C 5,0 C 86 % 15 lf 995,3 hPa 0,0 l/m 0 min 2 min 0 W/m 65,3 km/h (8 Bft) 95,74 %
03.01.2018 16:44 7,6 C 7,8 C 5,0 C 86 % 15 lf 995,4 hPa 0,0 l/m 0 min 2 min 0 W/m 63,1 km/h (8 Bft) 100,00 %
03.01.2018 16:46 7,7 C 7,8 C 5,0 C 86 % 15 lf 995,5 hPa 0,0 l/m 0 min 2 min 0 W/m 51,8 km/h (7 Bft) 100,00 %
03.01.2018 16:48 7,7 C 7,2 C 5,0 C 85 % 15 lf 995,5 hPa 0,0 l/m 0 min 2 min 0 W/m 45,1 km/h (6 Bft) 100,00 %
03.01.2018 16:50 7,7 C 7,2 C 5,0 C 86 % 15 lf 995,5 hPa 0,0 l/m 0 min 2 min 0 W/m 47,3 km/h (6 Bft) 100,00 %
03.01.2018 16:52 7,7 C 7,2 C 5,0 C 86 % 15 lf 995,4 hPa 0,0 l/m 0 min 2 min 0 W/m 65,3 km/h (8 Bft) 97,87 %
03.01.2018 16:54 7,7 C 7,2 C 5,0 C 85 % 15 lf 995,5 hPa 0,0 l/m 0 min 2 min 0 W/m 63,1 km/h (8 Bft) 100,00 %
03.01.2018 16:56 7,7 C 7,8 C 5,0 C 85 % 15 lf 995,6 hPa 0,0 l/m 0 min 2 min 0 W/m 65,3 km/h (8 Bft) 95,65 %
03.01.2018 16:58 7,7 C 7,8 C 5,0 C 85 % 4 lf 995,6 hPa 0,0 l/m 0 min 2 min 0 W/m 54,1 km/h (7 Bft) 97,87 %
03.01.2018 17:00 7,8 C 7,8 C 5,0 C 85 % 0 lf 995,6 hPa 0,0 l/m 0 min 2 min 0 W/m 45,1 km/h (6 Bft) 97,87 %
03.01.2018 17:02 7,8 C 7,8 C 5,0 C 85 % 0 lf 995,7 hPa 0,0 l/m 0 min 2 min 0 W/m 49,6 km/h (6 Bft) 95,74 %
03.01.2018 17:04 7,8 C 7,8 C 5,6 C 85 % 0 lf 995,7 hPa 0,0 l/m 0 min 0 min 0 W/m 58,6 km/h (7 Bft) 95,74 %
03.01.2018 17:06 7,8 C 7,8 C 5,6 C 84 % 0 lf 995,7 hPa 0,0 l/m 0 min 2 min 0 W/m 56,3 km/h (7 Bft) 95,74 %
03.01.2018 17:08 7,8 C 7,8 C 5,6 C 84 % 0 lf 995,7 hPa 0,0 l/m 0 min 2 min 0 W/m 49,6 km/h (6 Bft) 97,83 %
03.01.2018 17:10 7,8 C 7,8 C 5,6 C 84 % 0 lf 995,6 hPa 0,0 l/m 0 min 0 min 0 W/m 58,6 km/h (7 Bft) 95,74 %
03.01.2018 17:12 7,8 C 7,8 C 5,6 C 84 % 0 lf 995,7 hPa 0,0 l/m 0 min 0 min 0 W/m 47,3 km/h (6 Bft) 97,87 %
03.01.2018 17:14 7,8 C 7,8 C 5,6 C 84 % 0 lf 995,8 hPa 0,0 l/m 0 min 0 min 0 W/m 49,6 km/h (6 Bft) 95,74 %
03.01.2018 17:16 7,8 C 7,8 C 5,6 C 84 % 0 lf 995,8 hPa 0,0 l/m 0 min 2 min 0 W/m 63,1 km/h (8 Bft) 97,87 %
03.01.2018 17:18 7,8 C 7,8 C 5,6 C 84 % 0 lf 995,9 hPa 0,0 l/m 0 min 2 min 0 W/m 58,6 km/h (7 Bft) 95,74 %
03.01.2018 17:20 7,8 C 7,8 C 5,6 C 84 % 0 lf 995,9 hPa 0,0 l/m 0 min 2 min 0 W/m 56,3 km/h (7 Bft) 97,83 %
03.01.2018 17:22 7,8 C 7,8 C 5,6 C 85 % 0 lf 995,9 hPa 0,0 l/m 0 min 0 min 0 W/m 49,6 km/h (6 Bft) 93,62 %
03.01.2018 17:24 7,8 C 7,8 C 5,6 C 85 % 0 lf 995,9 hPa 0,0 l/m 0 min 0 min 0 W/m 45,1 km/h (6 Bft) 100,00 %
03.01.2018 17:26 7,8 C 7,8 C 5,6 C 85 % 0 lf 996,0 hPa 0,0 l/m 0 min 0 min 0 W/m 47,3 km/h (6 Bft) 97,87 %
03.01.2018 17:28 7,8 C 7,8 C 5,6 C 85 % 1 lf 996,0 hPa 0,0 l/m 0 min 0 min 0 W/m 40,6 km/h (6 Bft) 95,74 %
03.01.2018 17:30 7,8 C 7,2 C 5,6 C 85 % 15 lf 996,1 hPa 0,0 l/m 0 min 2 min 0 W/m 42,8 km/h (6 Bft) 97,87 %
03.01.2018 17:32 7,7 C 7,2 C 5,0 C 85 % 15 lf 996,0 hPa 0,0 l/m 0 min 2 min 0 W/m 49,6 km/h (6 Bft) 97,87 %
03.01.2018 17:34 7,7 C 6,7 C 5,0 C 86 % 15 lf 996,0 hPa 0,2 l/m 0 min 2 min 0 W/m 49,6 km/h (6 Bft) 93,48 %
03.01.2018 17:36 7,7 C 6,7 C 5,0 C 86 % 15 lf 996,2 hPa 0,0 l/m 0 min 2 min 0 W/m 49,6 km/h (6 Bft) 100,00 %
03.01.2018 17:38 7,6 C 6,1 C 5,0 C 87 % 15 lf 996,1 hPa 0,0 l/m 0 min 2 min 0 W/m 29,3 km/h (5 Bft) 100,00 %
03.01.2018 17:40 7,6 C 6,1 C 5,0 C 87 % 15 lf 996,2 hPa 0,0 l/m 0 min 2 min 0 W/m 45,1 km/h (6 Bft) 97,87 %
03.01.2018 17:42 7,5 C 6,1 C 5,0 C 88 % 15 lf 996,3 hPa 0,0 l/m 0 min 2 min 0 W/m 36,0 km/h (5 Bft) 95,74 %
03.01.2018 17:44 7,4 C 6,1 C 5,0 C 88 % 15 lf 996,2 hPa 0,2 l/m 0 min 2 min 0 W/m 40,6 km/h (6 Bft) 95,65 %
03.01.2018 17:46 7,4 C 6,1 C 5,0 C 88 % 15 lf 996,2 hPa 0,0 l/m 0 min 2 min 0 W/m 29,3 km/h (5 Bft) 93,62 %
03.01.2018 17:48 7,3 C 6,1 C 4,4 C 89 % 15 lf 996,1 hPa 0,0 l/m 0 min 2 min 0 W/m 40,6 km/h (6 Bft) 97,87 %
03.01.2018 17:50 7,3 C 6,1 C 5,0 C 89 % 15 lf 996,3 hPa 0,0 l/m 0 min 2 min 0 W/m 31,5 km/h (5 Bft) 95,74 %
03.01.2018 17:52 7,2 C 6,1 C 5,0 C 89 % 15 lf 996,2 hPa 0,0 l/m 0 min 2 min 0 W/m 29,3 km/h (5 Bft) 95,74 %
03.01.2018 17:54 7,2 C 6,1 C 5,0 C 90 % 15 lf 996,3 hPa 0,0 l/m 0 min 2 min 0 W/m 20,3 km/h (4 Bft) 97,87 %
03.01.2018 17:56 7,2 C 6,1 C 5,0 C 90 % 15 lf 996,2 hPa 0,2 l/m 0 min 2 min 0 W/m 38,3 km/h (5 Bft) 97,83 %
03.01.2018 17:58 7,1 C 6,1 C 5,0 C 90 % 15 lf 996,2 hPa 0,0 l/m 0 min 2 min 0 W/m 38,3 km/h (5 Bft) 97,87 %
03.01.2018 18:00 7,1 C 6,1 C 5,0 C 91 % 15 lf 996,3 hPa 0,0 l/m 0 min 2 min 0 W/m 29,3 km/h (5 Bft) 97,87 %
03.01.2018 18:02 7,1 C 6,1 C 5,0 C 91 % 15 lf 996,2 hPa 0,0 l/m 0 min 2 min 0 W/m 38,3 km/h (5 Bft) 95,74 %
03.01.2018 18:04 7,1 C 6,1 C 5,0 C 91 % 15 lf 996,2 hPa 0,0 l/m 0 min 2 min 0 W/m 27,0 km/h (4 Bft) 95,74 %
03.01.2018 18:06 7,0 C 6,1 C 5,0 C 91 % 15 lf 996,3 hPa 0,0 l/m 0 min 2 min 0 W/m 40,6 km/h (6 Bft) 95,65 %
03.01.2018 18:08 7,0 C 6,1 C 5,0 C 91 % 15 lf 996,3 hPa 0,0 l/m 0 min 2 min 0 W/m 31,5 km/h (5 Bft) 96,43 %
03.01.2018 18:10 7,0 C 6,1 C 5,0 C 91 % 15 lf 996,2 hPa 0,0 l/m 0 min 2 min 0 W/m 31,5 km/h (5 Bft) 95,74 %
03.01.2018 18:12 7,0 C 6,1 C 5,0 C 91 % 15 lf 996,1 hPa 0,0 l/m 0 min 2 min 0 W/m 33,8 km/h (5 Bft) 97,87 %
03.01.2018 18:14 7,0 C 6,1 C 5,0 C 91 % 15 lf 996,2 hPa 0,0 l/m 0 min 2 min 0 W/m 40,6 km/h (6 Bft) 97,87 %
03.01.2018 18:16 7,0 C 6,1 C 5,0 C 91 % 15 lf 996,2 hPa 0,0 l/m 0 min 2 min 0 W/m 36,0 km/h (5 Bft) 95,74 %
03.01.2018 18:18 7,1 C 6,1 C 5,0 C 91 % 15 lf 996,2 hPa 0,0 l/m 0 min 2 min 0 W/m 40,6 km/h (6 Bft) 91,30 %
03.01.2018 18:20 7,1 C 6,1 C 5,0 C 91 % 15 lf 996,1 hPa 0,0 l/m 0 min 0 min 0 W/m 36,0 km/h (5 Bft) 97,87 %
03.01.2018 18:22 7,1 C 6,1 C 5,0 C 90 % 15 lf 996,2 hPa 0,0 l/m 0 min 2 min 0 W/m 33,8 km/h (5 Bft) 95,74 %
03.01.2018 18:24 7,1 C 6,1 C 5,0 C 90 % 15 lf 996,2 hPa 0,0 l/m 0 min 0 min 0 W/m 29,3 km/h (5 Bft) 95,74 %
03.01.2018 18:26 7,2 C 6,1 C 5,0 C 90 % 15 lf 996,3 hPa 0,0 l/m 0 min 0 min 0 W/m 31,5 km/h (5 Bft) 95,74 %
03.01.2018 18:28 7,2 C 6,1 C 5,0 C 90 % 15 lf 996,2 hPa 0,0 l/m 0 min 0 min 0 W/m 40,6 km/h (6 Bft) 97,87 %
03.01.2018 18:30 7,2 C 6,1 C 5,6 C 90 % 15 lf 996,2 hPa 0,0 l/m 0 min 0 min 0 W/m 47,3 km/h (6 Bft) 95,65 %
03.01.2018 18:32 7,3 C 6,7 C 5,6 C 90 % 15 lf 996,4 hPa 0,0 l/m 0 min 0 min 0 W/m 40,6 km/h (6 Bft) 97,87 %
03.01.2018 18:34 7,3 C 6,7 C 5,6 C 89 % 15 lf 996,2 hPa 0,0 l/m 0 min 2 min 0 W/m 45,1 km/h (6 Bft) 95,74 %
03.01.2018 18:36 7,3 C 6,7 C 5,6 C 89 % 15 lf 996,3 hPa 0,0 l/m 0 min 0 min 0 W/m 33,8 km/h (5 Bft) 93,62 %
03.01.2018 18:38 7,4 C 6,7 C 5,6 C 89 % 15 lf 996,2 hPa 0,0 l/m 0 min 0 min 0 W/m 49,6 km/h (6 Bft) 95,74 %
03.01.2018 18:40 7,4 C 6,7 C 5,6 C 89 % 15 lf 996,2 hPa 0,0 l/m 0 min 0 min 0 W/m 27,0 km/h (4 Bft) 97,87 %
03.01.2018 18:42 7,4 C 6,7 C 5,6 C 88 % 15 lf 996,3 hPa 0,0 l/m 0 min 0 min 0 W/m 38,3 km/h (5 Bft) 93,48 %
03.01.2018 18:44 7,4 C 6,7 C 5,6 C 88 % 15 lf 996,4 hPa 0,0 l/m 0 min 0 min 0 W/m 47,3 km/h (6 Bft) 93,62 %
03.01.2018 18:46 7,5 C 7,2 C 5,6 C 88 % 15 lf 996,4 hPa 0,0 l/m 0 min 2 min 0 W/m 42,8 km/h (6 Bft) 95,74 %
03.01.2018 18:48 7,6 C 7,2 C 5,6 C 88 % 15 lf 996,3 hPa 0,0 l/m 0 min 0 min 0 W/m 40,6 km/h (6 Bft) 97,87 %
03.01.2018 18:50 7,6 C 7,2 C 5,6 C 88 % 15 lf 996,4 hPa 0,0 l/m 0 min 0 min 0 W/m 36,0 km/h (5 Bft) 93,62 %
03.01.2018 18:52 7,6 C 7,2 C 5,6 C 88 % 15 lf 996,4 hPa 0,0 l/m 0 min 0 min 0 W/m 49,6 km/h (6 Bft) 95,74 %
03.01.2018 18:54 7,6 C 7,2 C 5,6 C 88 % 15 lf 996,5 hPa 0,0 l/m 0 min 2 min 0 W/m 40,6 km/h (6 Bft) 91,30 %
03.01.2018 18:56 7,6 C 7,2 C 5,6 C 87 % 15 lf 996,3 hPa 0,0 l/m 0 min 2 min 0 W/m 51,8 km/h (7 Bft) 93,62 %
03.01.2018 18:58 7,6 C 7,2 C 5,0 C 87 % 15 lf 996,4 hPa 0,0 l/m 0 min 2 min 0 W/m 56,3 km/h (7 Bft) 93,62 %
03.01.2018 19:00 7,6 C 7,2 C 5,0 C 87 % 15 lf 996,3 hPa 0,0 l/m 0 min 2 min 0 W/m 49,6 km/h (6 Bft) 93,62 %
03.01.2018 19:02 7,6 C 7,2 C 5,0 C 87 % 15 lf 996,3 hPa 0,0 l/m 0 min 2 min 0 W/m 54,1 km/h (7 Bft) 93,62 %
03.01.2018 19:04 7,6 C 7,2 C 5,0 C 87 % 15 lf 996,3 hPa 0,0 l/m 0 min 2 min 0 W/m 45,1 km/h (6 Bft) 93,62 %
03.01.2018 19:06 7,7 C 7,2 C 5,0 C 87 % 15 lf 996,3 hPa 0,0 l/m 0 min 2 min 0 W/m 65,3 km/h (8 Bft) 93,48 %
03.01.2018 19:08 7,7 C 7,2 C 5,0 C 87 % 15 lf 996,3 hPa 0,0 l/m 0 min 2 min 0 W/m 45,1 km/h (6 Bft) 91,49 %
03.01.2018 19:10 7,7 C 7,2 C 5,0 C 87 % 15 lf 996,4 hPa 0,0 l/m 0 min 2 min 0 W/m 36,0 km/h (5 Bft) 93,62 %
03.01.2018 19:12 7,7 C 7,2 C 5,0 C 87 % 15 lf 996,4 hPa 0,0 l/m 0 min 2 min 0 W/m 45,1 km/h (6 Bft) 93,62 %
03.01.2018 19:14 7,6 C 7,2 C 5,0 C 87 % 15 lf 996,4 hPa 0,0 l/m 0 min 2 min 0 W/m 45,1 km/h (6 Bft) 95,74 %
03.01.2018 19:16 7,6 C 7,2 C 5,0 C 87 % 15 lf 996,4 hPa 0,0 l/m 0 min 2 min 0 W/m 38,3 km/h (5 Bft) 93,48 %
03.01.2018 19:18 7,6 C 7,2 C 5,0 C 88 % 15 lf 996,4 hPa 0,0 l/m 0 min 2 min 0 W/m 33,8 km/h (5 Bft) 93,62 %
03.01.2018 19:20 7,6 C 7,2 C 5,0 C 88 % 15 lf 996,3 hPa 0,0 l/m 0 min 2 min 0 W/m 29,3 km/h (5 Bft) 95,74 %
03.01.2018 19:22 7,6 C 7,2 C 5,0 C 88 % 15 lf 996,3 hPa 0,0 l/m 0 min 2 min 0 W/m 33,8 km/h (5 Bft) 93,62 %
03.01.2018 19:24 7,6 C 7,2 C 5,0 C 88 % 15 lf 996,4 hPa 0,0 l/m 0 min 2 min 0 W/m 40,6 km/h (6 Bft) 95,74 %
03.01.2018 19:26 7,6 C 7,8 C 5,6 C 88 % 14 lf 996,3 hPa 0,0 l/m 0 min 2 min 0 W/m 45,1 km/h (6 Bft) 95,74 %
03.01.2018 19:28 7,6 C 7,8 C 5,6 C 87 % 13 lf 996,4 hPa 0,0 l/m 0 min 2 min 0 W/m 36,0 km/h (5 Bft) 93,48 %
03.01.2018 19:30 7,7 C 7,8 C 5,6 C 87 % 4 lf 996,4 hPa 0,0 l/m 0 min 2 min 0 W/m 51,8 km/h (7 Bft) 97,87 %
03.01.2018 19:32 7,7 C 7,8 C 5,6 C 87 % 2 lf 996,4 hPa 0,0 l/m 0 min 2 min 0 W/m 45,1 km/h (6 Bft) 97,87 %
03.01.2018 19:34 7,7 C 7,8 C 5,6 C 87 % 2 lf 996,4 hPa 0,0 l/m 0 min 0 min 0 W/m 65,3 km/h (8 Bft) 100,00 %
03.01.2018 19:36 7,8 C 7,8 C 5,6 C 86 % 2 lf 996,4 hPa 0,0 l/m 0 min 2 min 0 W/m 47,3 km/h (6 Bft) 100,00 %
03.01.2018 19:38 7,8 C 7,8 C 5,6 C 86 % 1 lf 996,3 hPa 0,0 l/m 0 min 2 min 0 W/m 51,8 km/h (7 Bft) 100,00 %
03.01.2018 19:40 7,9 C 7,8 C 5,6 C 86 % 0 lf 996,4 hPa 0,0 l/m 0 min 0 min 0 W/m 47,3 km/h (6 Bft) 100,00 %
03.01.2018 19:42 7,9 C 7,8 C 5,6 C 85 % 0 lf 996,3 hPa 0,0 l/m 0 min 0 min 0 W/m 58,6 km/h (7 Bft) 95,74 %
03.01.2018 19:44 7,9 C 7,8 C 6,1 C 85 % 0 lf 996,5 hPa 0,0 l/m 0 min 2 min 0 W/m 54,1 km/h (7 Bft) 97,87 %
03.01.2018 19:46 8,0 C 7,8 C 6,1 C 85 % 1 lf 996,7 hPa 0,0 l/m 0 min 2 min 0 W/m 42,8 km/h (6 Bft) 100,00 %
03.01.2018 19:48 8,1 C 7,8 C 5,6 C 85 % 15 lf 996,8 hPa 0,0 l/m 0 min 2 min 0 W/m 76,6 km/h (9 Bft) 100,00 %
03.01.2018 19:50 8,1 C 7,8 C 5,6 C 84 % 15 lf 996,9 hPa 0,0 l/m 0 min 2 min 0 W/m 47,3 km/h (6 Bft) 100,00 %
03.01.2018 19:52 8,1 C 7,8 C 5,6 C 84 % 14 lf 997,1 hPa 0,0 l/m 0 min 2 min 0 W/m 42,8 km/h (6 Bft) 100,00 %
03.01.2018 19:54 8,1 C 7,8 C 5,6 C 84 % 10 lf 996,9 hPa 0,0 l/m 0 min 0 min 0 W/m 49,6 km/h (6 Bft) 100,00 %
03.01.2018 19:56 8,1 C 7,8 C 5,6 C 84 % 4 lf 997,1 hPa 0,0 l/m 0 min 2 min 0 W/m 49,6 km/h (6 Bft) 100,00 %
03.01.2018 19:58 8,1 C 7,8 C 5,6 C 84 % 1 lf 997,2 hPa 0,0 l/m 0 min 2 min 0 W/m 45,1 km/h (6 Bft) 100,00 %
03.01.2018 20:00 8,2 C 7,8 C 5,6 C 84 % 0 lf 997,3 hPa 0,0 l/m 0 min 2 min 0 W/m 49,6 km/h (6 Bft) 100,00 %
03.01.2018 20:02 8,2 C 7,8 C 5,6 C 83 % 15 lf 997,2 hPa 0,0 l/m 0 min 2 min 0 W/m 42,8 km/h (6 Bft) 100,00 %
03.01.2018 20:04 8,2 C 7,8 C 5,6 C 84 % 13 lf 997,4 hPa 0,0 l/m 0 min 2 min 0 W/m 51,8 km/h (7 Bft) 95,65 %
03.01.2018 20:06 8,2 C 7,8 C 5,6 C 84 % 10 lf 997,3 hPa 0,0 l/m 0 min 2 min 0 W/m 51,8 km/h (7 Bft) 95,74 %
03.01.2018 20:08 8,1 C 7,8 C 5,6 C 84 % 13 lf 997,6 hPa 0,0 l/m 0 min 2 min 0 W/m 49,6 km/h (6 Bft) 100,00 %
03.01.2018 20:10 8,1 C 6,7 C 5,0 C 84 % 15 lf 997,6 hPa 0,2 l/m 0 min 2 min 0 W/m 47,3 km/h (6 Bft) 97,87 %
03.01.2018 20:12 7,9 C 6,1 C 4,4 C 85 % 15 lf 997,9 hPa 0,2 l/m 0 min 2 min 0 W/m 60,8 km/h (7 Bft) 93,62 %
03.01.2018 20:14 7,7 C 5,6 C 4,4 C 85 % 15 lf 997,8 hPa 0,0 l/m 0 min 2 min 0 W/m 78,9 km/h (9 Bft) 97,87 %
03.01.2018 20:16 7,5 C 5,6 C 4,4 C 85 % 15 lf 998,0 hPa 0,2 l/m 0 min 2 min 0 W/m 54,1 km/h (7 Bft) 95,65 %
03.01.2018 20:18 7,3 C 5,6 C 4,4 C 86 % 15 lf 998,1 hPa 0,2 l/m 0 min 2 min 0 W/m 45,1 km/h (6 Bft) 97,87 %
03.01.2018 20:20 7,2 C 5,0 C 4,4 C 87 % 15 lf 998,0 hPa 0,2 l/m 0 min 2 min 0 W/m 45,1 km/h (6 Bft) 97,87 %
03.01.2018 20:22 7,1 C 5,0 C 4,4 C 87 % 15 lf 998,1 hPa 0,0 l/m 0 min 2 min 0 W/m 33,8 km/h (5 Bft) 97,87 %
03.01.2018 20:24 6,9 C 5,0 C 4,4 C 88 % 15 lf 998,0 hPa 0,0 l/m 0 min 2 min 0 W/m 31,5 km/h (5 Bft) 97,87 %
03.01.2018 20:26 6,8 C 5,0 C 4,4 C 88 % 15 lf 998,0 hPa 0,0 l/m 0 min 2 min 0 W/m 36,0 km/h (5 Bft) 97,87 %
03.01.2018 20:28 6,7 C 5,0 C 4,4 C 88 % 15 lf 997,9 hPa 0,2 l/m 0 min 2 min 0 W/m 27,0 km/h (4 Bft) 95,65 %
03.01.2018 20:30 6,7 C 5,0 C 4,4 C 89 % 15 lf 997,9 hPa 0,0 l/m 0 min 2 min 0 W/m 29,3 km/h (5 Bft) 97,87 %
03.01.2018 20:32 6,6 C 5,0 C 4,4 C 89 % 15 lf 997,8 hPa 0,0 l/m 0 min 2 min 0 W/m 22,5 km/h (4 Bft) 93,62 %
03.01.2018 20:34 6,6 C 5,0 C 4,4 C 90 % 15 lf 997,9 hPa 0,0 l/m 0 min 2 min 0 W/m 27,0 km/h (4 Bft) 97,87 %
03.01.2018 20:36 6,5 C 5,0 C 1,7 C 90 % 15 lf 997,8 hPa 0,4 l/m 0 min 2 min 0 W/m 27,0 km/h (4 Bft) 91,49 %
03.01.2018 20:38 6,4 C 5,0 C 1,7 C 90 % 15 lf 997,7 hPa 0,4 l/m 0 min 2 min 0 W/m 22,5 km/h (4 Bft) 97,87 %
03.01.2018 20:40 6,3 C 5,0 C 2,8 C 90 % 15 lf 997,9 hPa 0,0 l/m 0 min 2 min 0 W/m 31,5 km/h (5 Bft) 93,48 %
03.01.2018 20:42 6,2 C 5,0 C 3,3 C 90 % 15 lf 998,0 hPa 0,0 l/m 0 min 2 min 0 W/m 33,8 km/h (5 Bft) 95,74 %
03.01.2018 20:44 6,1 C 5,0 C 3,3 C 91 % 15 lf 997,8 hPa 0,2 l/m 0 min 2 min 0 W/m 27,0 km/h (4 Bft) 95,74 %
03.01.2018 20:46 6,1 C 5,0 C 3,9 C 91 % 15 lf 997,9 hPa 0,0 l/m 0 min 0 min 0 W/m 27,0 km/h (4 Bft) 95,74 %
03.01.2018 20:48 6,0 C 5,0 C 3,9 C 91 % 15 lf 997,9 hPa 0,0 l/m 0 min 0 min 0 W/m 24,8 km/h (4 Bft) 93,62 %
03.01.2018 20:50 6,0 C 5,0 C 3,9 C 92 % 15 lf 998,0 hPa 0,0 l/m 0 min 0 min 0 W/m 33,8 km/h (5 Bft) 95,65 %
03.01.2018 20:52 6,1 C 5,6 C 4,4 C 92 % 15 lf 998,1 hPa 0,0 l/m 0 min 0 min 0 W/m 36,0 km/h (5 Bft) 95,74 %
03.01.2018 20:54 6,1 C 5,6 C 4,4 C 92 % 15 lf 998,1 hPa 0,0 l/m 0 min 0 min 0 W/m 33,8 km/h (5 Bft) 95,74 %
03.01.2018 20:56 6,2 C 5,6 C 4,4 C 93 % 15 lf 998,0 hPa 0,0 l/m 0 min 0 min 0 W/m 24,8 km/h (4 Bft) 95,74 %
03.01.2018 20:58 6,2 C 5,6 C 4,4 C 93 % 15 lf 998,1 hPa 0,0 l/m 0 min 0 min 0 W/m 33,8 km/h (5 Bft) 97,87 %
03.01.2018 21:00 6,2 C 5,6 C 4,4 C 93 % 15 lf 998,1 hPa 0,0 l/m 0 min 0 min 0 W/m 27,0 km/h (4 Bft) 97,87 %
03.01.2018 21:02 6,2 C 5,6 C 4,4 C 93 % 15 lf 998,0 hPa 0,0 l/m 0 min 0 min 0 W/m 40,6 km/h (6 Bft) 97,83 %
03.01.2018 21:04 6,3 C 5,6 C 4,4 C 93 % 15 lf 998,0 hPa 0,0 l/m 0 min 0 min 0 W/m 40,6 km/h (6 Bft) 97,87 %
03.01.2018 21:06 6,3 C 5,6 C 4,4 C 93 % 15 lf 998,1 hPa 0,2 l/m 0 min 0 min 0 W/m 47,3 km/h (6 Bft) 100,00 %
03.01.2018 21:08 6,3 C 5,6 C 4,4 C 93 % 15 lf 998,1 hPa 0,0 l/m 0 min 0 min 0 W/m 38,3 km/h (5 Bft) 93,62 %
03.01.2018 21:10 6,3 C 5,6 C 4,4 C 93 % 15 lf 998,1 hPa 0,0 l/m 0 min 0 min 0 W/m 38,3 km/h (5 Bft) 97,87 %
03.01.2018 21:12 6,4 C 5,6 C 4,4 C 93 % 15 lf 998,1 hPa 0,0 l/m 0 min 0 min 0 W/m 45,1 km/h (6 Bft) 97,87 %
03.01.2018 21:14 6,4 C 5,6 C 4,4 C 93 % 15 lf 998,1 hPa 0,0 l/m 0 min 0 min 0 W/m 36,0 km/h (5 Bft) 97,83 %
03.01.2018 21:16 6,4 C 5,6 C 4,4 C 93 % 15 lf 998,1 hPa 0,0 l/m 0 min 0 min 0 W/m 31,5 km/h (5 Bft) 93,62 %
03.01.2018 21:18 6,4 C 5,6 C 4,4 C 93 % 15 lf 998,1 hPa 0,0 l/m 0 min 0 min 0 W/m 42,8 km/h (6 Bft) 100,00 %
03.01.2018 21:20 6,4 C 5,6 C 4,4 C 93 % 15 lf 998,0 hPa 0,0 l/m 0 min 0 min 0 W/m 36,0 km/h (5 Bft) 100,00 %
03.01.2018 21:22 6,4 C 5,6 C 4,4 C 93 % 15 lf 998,0 hPa 0,0 l/m 0 min 0 min 0 W/m 29,3 km/h (5 Bft) 100,00 %
03.01.2018 21:24 6,4 C 5,6 C 4,4 C 93 % 15 lf 998,0 hPa 0,0 l/m 0 min 0 min 0 W/m 47,3 km/h (6 Bft) 95,74 %
03.01.2018 21:26 6,4 C 5,6 C 4,4 C 93 % 15 lf 998,0 hPa 0,0 l/m 0 min 0 min 0 W/m 38,3 km/h (5 Bft) 95,65 %
03.01.2018 21:28 6,5 C 5,6 C 4,4 C 93 % 15 lf 997,9 hPa 0,0 l/m 0 min 0 min 0 W/m 42,8 km/h (6 Bft) 97,87 %
03.01.2018 21:30 6,5 C 5,6 C 4,4 C 93 % 15 lf 998,1 hPa 0,0 l/m 0 min 0 min 0 W/m 36,0 km/h (5 Bft) 100,00 %
03.01.2018 21:32 6,5 C 5,6 C 4,4 C 92 % 15 lf 998,0 hPa 0,0 l/m 0 min 0 min 0 W/m 38,3 km/h (5 Bft) 100,00 %
03.01.2018 21:34 6,6 C 5,6 C 4,4 C 93 % 15 lf 998,0 hPa 0,0 l/m 0 min 0 min 0 W/m 36,0 km/h (5 Bft) 97,87 %
03.01.2018 21:36 6,6 C 5,6 C 4,4 C 92 % 15 lf 998,0 hPa 0,0 l/m 0 min 0 min 0 W/m 36,0 km/h (5 Bft) 97,87 %
03.01.2018 21:38 6,6 C 5,6 C 4,4 C 92 % 15 lf 998,0 hPa 0,0 l/m 0 min 0 min 0 W/m 45,1 km/h (6 Bft) 97,83 %
03.01.2018 21:40 6,6 C 5,6 C 4,4 C 92 % 15 lf 998,0 hPa 0,0 l/m 0 min 0 min 0 W/m 36,0 km/h (5 Bft) 100,00 %
03.01.2018 21:42 6,6 C 6,1 C 4,4 C 92 % 15 lf 998,1 hPa 0,0 l/m 0 min 0 min 0 W/m 33,8 km/h (5 Bft) 97,87 %
03.01.2018 21:44 6,7 C 6,1 C 4,4 C 92 % 15 lf 998,2 hPa 0,0 l/m 0 min 0 min 0 W/m 33,8 km/h (5 Bft) 97,87 %
03.01.2018 21:46 6,7 C 6,1 C 4,4 C 92 % 15 lf 998,1 hPa 0,0 l/m 0 min 0 min 0 W/m 38,3 km/h (5 Bft) 95,74 %
03.01.2018 21:48 6,7 C 6,1 C 4,4 C 91 % 15 lf 998,3 hPa 0,0 l/m 0 min 0 min 0 W/m 51,8 km/h (7 Bft) 100,00 %
03.01.2018 21:50 6,8 C 6,1 C 4,4 C 91 % 15 lf 998,2 hPa 0,0 l/m 0 min 0 min 0 W/m 42,8 km/h (6 Bft) 97,83 %
03.01.2018 21:52 6,8 C 6,1 C 4,4 C 91 % 15 lf 998,2 hPa 0,0 l/m 0 min 0 min 0 W/m 33,8 km/h (5 Bft) 95,74 %
03.01.2018 21:54 6,8 C 6,1 C 4,4 C 91 % 15 lf 998,3 hPa 0,0 l/m 0 min 0 min 0 W/m 38,3 km/h (5 Bft) 97,87 %
03.01.2018 21:56 6,9 C 6,1 C 4,4 C 91 % 15 lf 998,1 hPa 0,0 l/m 0 min 2 min 0 W/m 49,6 km/h (6 Bft) 97,87 %
03.01.2018 21:58 6,9 C 6,1 C 4,4 C 90 % 15 lf 998,2 hPa 0,0 l/m 0 min 0 min 0 W/m 33,8 km/h (5 Bft) 97,87 %
03.01.2018 22:00 6,9 C 6,1 C 4,4 C 90 % 15 lf 998,2 hPa 0,0 l/m 0 min 0 min 0 W/m 33,8 km/h (5 Bft) 97,83 %
03.01.2018 22:02 6,9 C 6,1 C 4,4 C 90 % 15 lf 998,2 hPa 0,0 l/m 0 min 0 min 0 W/m 40,6 km/h (6 Bft) 97,87 %
03.01.2018 22:04 6,9 C 6,1 C 4,4 C 90 % 15 lf 998,2 hPa 0,0 l/m 0 min 0 min 0 W/m 40,6 km/h (6 Bft) 93,62 %
03.01.2018 22:06 6,9 C 6,1 C 4,4 C 90 % 15 lf 998,2 hPa 0,0 l/m 0 min 0 min 0 W/m 45,1 km/h (6 Bft) 97,87 %
03.01.2018 22:08 6,9 C 6,1 C 4,4 C 90 % 14 lf 998,0 hPa 0,0 l/m 0 min 0 min 0 W/m 42,8 km/h (6 Bft) 97,87 %
03.01.2018 22:10 6,9 C 6,1 C 4,4 C 90 % 14 lf 998,1 hPa 0,0 l/m 0 min 0 min 0 W/m 40,6 km/h (6 Bft) 95,74 %
03.01.2018 22:12 6,9 C 6,1 C 4,4 C 90 % 13 lf 998,1 hPa 0,0 l/m 0 min 0 min 0 W/m 45,1 km/h (6 Bft) 97,87 %
03.01.2018 22:14 6,9 C 6,1 C 4,4 C 90 % 12 lf 998,1 hPa 0,0 l/m 0 min 2 min 0 W/m 49,6 km/h (6 Bft) 95,65 %
03.01.2018 22:16 6,9 C 6,1 C 5,0 C 90 % 12 lf 998,2 hPa 0,0 l/m 0 min 2 min 0 W/m 47,3 km/h (6 Bft) 100,00 %
03.01.2018 22:18 6,9 C 6,1 C 5,0 C 90 % 11 lf 998,2 hPa 0,0 l/m 0 min 0 min 0 W/m 36,0 km/h (5 Bft) 95,74 %
03.01.2018 22:20 6,9 C 6,1 C 5,0 C 90 % 9 lf 998,2 hPa 0,0 l/m 0 min 0 min 0 W/m 40,6 km/h (6 Bft) 95,74 %
03.01.2018 22:22 6,9 C 6,1 C 5,0 C 90 % 7 lf 998,1 hPa 0,0 l/m 0 min 0 min 0 W/m 40,6 km/h (6 Bft) 93,62 %
03.01.2018 22:24 6,9 C 6,1 C 4,4 C 90 % 6 lf 998,2 hPa 0,0 l/m 0 min 0 min 0 W/m 38,3 km/h (5 Bft) 95,65 %
03.01.2018 22:26 6,9 C 6,1 C 4,4 C 90 % 4 lf 998,2 hPa 0,0 l/m 0 min 0 min 0 W/m 36,0 km/h (5 Bft) 95,74 %
03.01.2018 22:28 6,9 C 6,1 C 4,4 C 90 % 6 lf 998,3 hPa 0,0 l/m 0 min 2 min 0 W/m 36,0 km/h (5 Bft) 93,62 %
03.01.2018 22:30 6,9 C 6,1 C 4,4 C 90 % 9 lf 998,4 hPa 0,0 l/m 0 min 2 min 0 W/m 31,5 km/h (5 Bft) 95,74 %
03.01.2018 22:32 6,9 C 6,1 C 4,4 C 90 % 12 lf 998,3 hPa 0,0 l/m 0 min 2 min 0 W/m 36,0 km/h (5 Bft) 91,49 %
03.01.2018 22:34 6,9 C 6,1 C 4,4 C 90 % 15 lf 998,4 hPa 0,0 l/m 0 min 2 min 0 W/m 45,1 km/h (6 Bft) 97,87 %
03.01.2018 22:36 6,9 C 6,1 C 4,4 C 90 % 15 lf 998,3 hPa 0,0 l/m 0 min 2 min 0 W/m 49,6 km/h (6 Bft) 95,65 %
03.01.2018 22:38 6,9 C 6,1 C 4,4 C 90 % 15 lf 998,3 hPa 0,0 l/m 0 min 2 min 0 W/m 36,0 km/h (5 Bft) 95,74 %
03.01.2018 22:40 7,0 C 6,1 C 4,4 C 90 % 15 lf 998,2 hPa 0,0 l/m 0 min 2 min 0 W/m 27,0 km/h (4 Bft) 93,62 %
03.01.2018 22:42 6,9 C 6,1 C 4,4 C 91 % 15 lf 998,4 hPa 0,0 l/m 0 min 2 min 0 W/m 36,0 km/h (5 Bft) 93,62 %
03.01.2018 22:44 6,9 C 6,1 C 4,4 C 91 % 15 lf 998,4 hPa 0,0 l/m 0 min 2 min 0 W/m 38,3 km/h (5 Bft) 95,74 %
03.01.2018 22:46 6,9 C 6,1 C 4,4 C 91 % 15 lf 998,4 hPa 0,0 l/m 0 min 2 min 0 W/m 36,0 km/h (5 Bft) 91,49 %
03.01.2018 22:48 6,9 C 6,1 C 4,4 C 91 % 15 lf 998,3 hPa 0,0 l/m 0 min 2 min 0 W/m 47,3 km/h (6 Bft) 93,48 %
03.01.2018 22:50 6,9 C 5,6 C 4,4 C 91 % 15 lf 998,4 hPa 0,2 l/m 0 min 2 min 0 W/m 45,1 km/h (6 Bft) 93,62 %
03.01.2018 22:52 6,9 C 5,6 C 4,4 C 91 % 15 lf 998,4 hPa 0,0 l/m 0 min 2 min 0 W/m 40,6 km/h (6 Bft) 93,62 %
03.01.2018 22:54 6,9 C 5,6 C 4,4 C 91 % 15 lf 998,3 hPa 0,0 l/m 0 min 2 min 0 W/m 33,8 km/h (5 Bft) 95,74 %
03.01.2018 22:56 6,9 C 5,6 C 4,4 C 91 % 15 lf 998,3 hPa 0,0 l/m 0 min 2 min 0 W/m 36,0 km/h (5 Bft) 93,62 %
03.01.2018 22:58 6,9 C 5,6 C 4,4 C 91 % 15 lf 998,3 hPa 0,0 l/m 0 min 2 min 0 W/m 33,8 km/h (5 Bft) 93,62 %
03.01.2018 23:00 6,8 C 5,6 C 4,4 C 91 % 15 lf 998,3 hPa 0,0 l/m 0 min 2 min 0 W/m 33,8 km/h (5 Bft) 91,30 %
03.01.2018 23:02 6,8 C 5,6 C 4,4 C 91 % 15 lf 998,3 hPa 0,0 l/m 0 min 2 min 0 W/m 40,6 km/h (6 Bft) 91,49 %
03.01.2018 23:04 6,8 C 5,6 C 4,4 C 91 % 15 lf 998,3 hPa 0,0 l/m 0 min 2 min 0 W/m 40,6 km/h (6 Bft) 93,62 %
03.01.2018 23:06 6,8 C 5,6 C 4,4 C 91 % 15 lf 998,2 hPa 0,0 l/m 0 min 2 min 0 W/m 36,0 km/h (5 Bft) 85,11 %
03.01.2018 23:08 6,8 C 5,6 C 4,4 C 91 % 15 lf 998,1 hPa 0,2 l/m 0 min 2 min 0 W/m 27,0 km/h (4 Bft) 89,36 %
03.01.2018 23:10 6,8 C 5,6 C 4,4 C 91 % 15 lf 998,1 hPa 0,0 l/m 0 min 2 min 0 W/m 36,0 km/h (5 Bft) 97,83 %
03.01.2018 23:12 6,8 C 5,6 C 4,4 C 91 % 15 lf 998,1 hPa 0,0 l/m 0 min 2 min 0 W/m 29,3 km/h (5 Bft) 95,74 %
03.01.2018 23:14 6,8 C 5,6 C 4,4 C 91 % 15 lf 998,0 hPa 0,0 l/m 0 min 2 min 0 W/m 40,6 km/h (6 Bft) 91,49 %
03.01.2018 23:16 6,8 C 6,1 C 4,4 C 91 % 15 lf 998,0 hPa 0,0 l/m 0 min 2 min 0 W/m 33,8 km/h (5 Bft) 95,74 %
03.01.2018 23:18 6,8 C 6,1 C 4,4 C 91 % 15 lf 998,0 hPa 0,0 l/m 0 min 2 min 0 W/m 36,0 km/h (5 Bft) 91,49 %
03.01.2018 23:20 6,8 C 6,1 C 4,4 C 90 % 15 lf 998,1 hPa 0,0 l/m 0 min 2 min 0 W/m 42,8 km/h (6 Bft) 95,74 %
03.01.2018 23:22 6,9 C 6,1 C 4,4 C 90 % 15 lf 998,1 hPa 0,0 l/m 0 min 0 min 0 W/m 40,6 km/h (6 Bft) 96,23 %
03.01.2018 23:24 6,9 C 6,1 C 4,4 C 90 % 15 lf 998,1 hPa 0,0 l/m 0 min 0 min 0 W/m 47,3 km/h (6 Bft) 97,83 %
03.01.2018 23:26 6,9 C 6,1 C 4,4 C 90 % 15 lf 998,1 hPa 0,0 l/m 0 min 2 min 0 W/m 36,0 km/h (5 Bft) 93,62 %
03.01.2018 23:28 6,9 C 6,1 C 4,4 C 89 % 15 lf 998,1 hPa 0,0 l/m 0 min 2 min 0 W/m 45,1 km/h (6 Bft) 97,87 %
03.01.2018 23:30 7,0 C 6,1 C 4,4 C 89 % 15 lf 998,1 hPa 0,0 l/m 0 min 2 min 0 W/m 40,6 km/h (6 Bft) 97,87 %
03.01.2018 23:32 7,0 C 6,1 C 4,4 C 89 % 15 lf 998,1 hPa 0,0 l/m 0 min 2 min 0 W/m 45,1 km/h (6 Bft) 100,00 %
03.01.2018 23:34 7,1 C 6,1 C 5,0 C 88 % 15 lf 998,1 hPa 0,0 l/m 0 min 2 min 0 W/m 45,1 km/h (6 Bft) 97,87 %
03.01.2018 23:36 7,2 C 6,1 C 5,0 C 88 % 15 lf 998,1 hPa 0,0 l/m 0 min 2 min 0 W/m 40,6 km/h (6 Bft) 97,83 %
03.01.2018 23:38 7,2 C 6,1 C 5,0 C 88 % 15 lf 998,2 hPa 0,0 l/m 0 min 2 min 0 W/m 47,3 km/h (6 Bft) 100,00 %
03.01.2018 23:40 7,2 C 6,1 C 5,0 C 87 % 15 lf 998,3 hPa 0,0 l/m 0 min 2 min 0 W/m 54,1 km/h (7 Bft) 100,00 %
03.01.2018 23:42 7,3 C 6,1 C 5,0 C 87 % 15 lf 998,2 hPa 0,0 l/m 0 min 2 min 0 W/m 49,6 km/h (6 Bft) 95,74 %
03.01.2018 23:44 7,4 C 6,7 C 5,0 C 87 % 15 lf 998,2 hPa 0,0 l/m 0 min 0 min 0 W/m 47,3 km/h (6 Bft) 100,00 %
03.01.2018 23:46 7,4 C 6,7 C 5,0 C 86 % 14 lf 998,3 hPa 0,0 l/m 0 min 0 min 0 W/m 33,8 km/h (5 Bft) 97,83 %
03.01.2018 23:48 7,4 C 6,7 C 5,0 C 86 % 11 lf 998,2 hPa 0,0 l/m 0 min 0 min 0 W/m 36,0 km/h (5 Bft) 97,87 %
03.01.2018 23:50 7,5 C 6,7 C 5,0 C 86 % 3 lf 998,2 hPa 0,0 l/m 0 min 0 min 0 W/m 42,8 km/h (6 Bft) 100,00 %
03.01.2018 23:52 7,5 C 6,7 C 5,0 C 86 % 0 lf 998,3 hPa 0,0 l/m 0 min 0 min 0 W/m 47,3 km/h (6 Bft) 97,87 %
03.01.2018 23:54 7,5 C 6,7 C 5,0 C 86 % 0 lf 998,3 hPa 0,0 l/m 0 min 0 min 0 W/m 47,3 km/h (6 Bft) 100,00 %
03.01.2018 23:56 7,6 C 6,7 C 5,0 C 86 % 0 lf 998,4 hPa 0,0 l/m 0 min 0 min 0 W/m 45,1 km/h (6 Bft) 100,00 %
03.01.2018 23:58 7,6 C 6,7 C 5,0 C 85 % 0 lf 998,4 hPa 0,0 l/m 0 min 0 min 0 W/m 49,6 km/h (6 Bft) 95,65 %
_ Min-Zeit 08:26 08:12 08:12 11:32 07:58 04:42 - - - - 01:16 23:06
Minimum _ 5,0 C 3,3 C 0,6 C 79 % 0 lf 985,0 hPa - - - - 15,8 km/h (3 Bft) 85,11 %
_ Max-Zeit 04:52 04:20 05:00 03:54 00:00 00:00 08:12 10:44 00:08 11:32 08:06 00:30
Maximum _ 10,9 C 10,0 C 9,4 C 98 % 15 lf 999,6 hPa 0,8 l/m 2 min 4 min 156 W/m 96,9 km/h
W (10 Bft)
100,00 %
Durchschnitt _ 7,9 C 7,3 C 5,7 C 90 % 13 lf 992,4 hPa #17,6 l/m #14 min. #17:02 h 48 W/m 42,7 km/h (6 Bft) 96,29 %
© 2018 W. Hausmann